Wetterdaten: Freitag, 07.12.2018
Datum Zeit Temp. Aussen Temp. o. S. +5cm Feuchte Auss Luftdruck Regen Sonnenschein Regendauer Solar Windben Empfang
07.12.2018 00:00 12,0 C 10,6 C 10,0 C 94 % 1013,2 hPa 0,0 l/m 0 min 0 min 0 W/m 12,9 km/h (3 Bft) 97,87 %
07.12.2018 00:02 11,9 C 10,6 C 10,0 C 94 % 1013,3 hPa 0,0 l/m 0 min 2 min 0 W/m 19,3 km/h (3 Bft) 100,00 %
07.12.2018 00:04 11,9 C 10,6 C 10,0 C 94 % 1013,3 hPa 0,0 l/m 0 min 0 min 0 W/m 12,9 km/h (3 Bft) 97,87 %
07.12.2018 00:07 11,8 C 10,6 C 10,0 C 94 % 1013,3 hPa 0,0 l/m 0 min 0 min 0 W/m 29,0 km/h (5 Bft) 97,56 %
07.12.2018 00:08 11,8 C 10,6 C 10,0 C 94 % 1013,3 hPa 0,0 l/m 0 min 0 min 0 W/m 16,1 km/h (3 Bft) 100,00 %
07.12.2018 00:10 11,8 C 10,6 C 10,0 C 94 % 1013,3 hPa 0,0 l/m 0 min 0 min 0 W/m 19,3 km/h (3 Bft) 95,65 %
07.12.2018 00:12 11,8 C 10,6 C 10,0 C 94 % 1013,2 hPa 0,0 l/m 0 min 0 min 0 W/m 25,7 km/h (4 Bft) 93,62 %
07.12.2018 00:14 11,7 C 10,6 C 10,0 C 94 % 1013,3 hPa 0,0 l/m 0 min 0 min 0 W/m 16,1 km/h (3 Bft) 97,87 %
07.12.2018 00:16 11,7 C 10,6 C 10,0 C 94 % 1013,2 hPa 0,0 l/m 0 min 0 min 0 W/m 16,1 km/h (3 Bft) 95,74 %
07.12.2018 00:18 11,7 C 10,6 C 10,0 C 94 % 1013,2 hPa 0,0 l/m 0 min 0 min 0 W/m 22,5 km/h (4 Bft) 97,87 %
07.12.2018 00:20 11,7 C 10,6 C 10,0 C 94 % 1013,1 hPa 0,0 l/m 0 min 2 min 0 W/m 16,1 km/h (3 Bft) 97,87 %
07.12.2018 00:22 11,6 C 10,6 C 10,0 C 94 % 1013,2 hPa 0,0 l/m 0 min 0 min 0 W/m 25,7 km/h (4 Bft) 97,83 %
07.12.2018 00:24 11,6 C 10,6 C 10,0 C 94 % 1013,3 hPa 0,0 l/m 0 min 0 min 0 W/m 29,0 km/h (5 Bft) 97,87 %
07.12.2018 00:26 11,6 C 10,6 C 10,0 C 94 % 1013,2 hPa 0,0 l/m 0 min 0 min 0 W/m 16,1 km/h (3 Bft) 95,74 %
07.12.2018 00:28 11,6 C 10,6 C 10,0 C 94 % 1013,3 hPa 0,0 l/m 0 min 0 min 0 W/m 32,2 km/h (5 Bft) 95,74 %
07.12.2018 00:30 11,6 C 10,6 C 10,0 C 94 % 1013,2 hPa 0,0 l/m 0 min 0 min 0 W/m 35,4 km/h (5 Bft) 97,87 %
07.12.2018 00:32 11,5 C 10,6 C 10,0 C 94 % 1013,3 hPa 0,0 l/m 0 min 0 min 0 W/m 29,0 km/h (5 Bft) 95,65 %
07.12.2018 00:34 11,5 C 10,6 C 10,0 C 94 % 1013,1 hPa 0,0 l/m 0 min 0 min 0 W/m 22,5 km/h (4 Bft) 97,87 %
07.12.2018 00:36 11,5 C 10,6 C 10,0 C 94 % 1013,1 hPa 0,0 l/m 0 min 0 min 0 W/m 16,1 km/h (3 Bft) 96,61 %
07.12.2018 00:38 11,5 C 10,6 C 10,0 C 94 % 1013,1 hPa 0,0 l/m 0 min 0 min 0 W/m 22,5 km/h (4 Bft) 97,14 %
07.12.2018 00:40 11,5 C 10,6 C 10,0 C 94 % 1013,2 hPa 0,0 l/m 0 min 0 min 0 W/m 29,0 km/h (5 Bft) 97,87 %
07.12.2018 00:42 11,5 C 10,6 C 10,0 C 94 % 1013,2 hPa 0,0 l/m 0 min 0 min 0 W/m 12,9 km/h (3 Bft) 97,87 %
07.12.2018 00:44 11,4 C 11,1 C 10,6 C 94 % 1013,1 hPa 0,0 l/m 0 min 2 min 0 W/m 22,5 km/h (4 Bft) 97,87 %
07.12.2018 00:46 11,4 C 11,1 C 10,6 C 94 % 1013,0 hPa 0,0 l/m 0 min 0 min 0 W/m 19,3 km/h (3 Bft) 95,65 %
07.12.2018 00:48 11,5 C 11,1 C 10,6 C 93 % 1013,0 hPa 0,0 l/m 0 min 0 min 0 W/m 25,7 km/h (4 Bft) 97,87 %
07.12.2018 00:50 11,4 C 11,1 C 10,6 C 93 % 1012,9 hPa 0,0 l/m 0 min 0 min 0 W/m 12,9 km/h (3 Bft) 97,87 %
07.12.2018 00:52 11,4 C 11,1 C 10,6 C 93 % 1012,9 hPa 0,0 l/m 0 min 0 min 0 W/m 19,3 km/h (3 Bft) 97,87 %
07.12.2018 00:54 11,4 C 11,1 C 10,6 C 93 % 1012,9 hPa 0,0 l/m 0 min 0 min 0 W/m 16,1 km/h (3 Bft) 97,87 %
07.12.2018 00:56 11,4 C 11,1 C 10,6 C 93 % 1012,9 hPa 0,0 l/m 0 min 0 min 0 W/m 16,1 km/h (3 Bft) 100,00 %
07.12.2018 00:58 11,5 C 11,1 C 10,6 C 93 % 1012,8 hPa 0,0 l/m 0 min 0 min 0 W/m 25,7 km/h (4 Bft) 95,74 %
07.12.2018 01:00 11,5 C 11,1 C 10,6 C 93 % 1012,7 hPa 0,0 l/m 0 min 0 min 0 W/m 19,3 km/h (3 Bft) 97,87 %
07.12.2018 01:02 11,5 C 11,1 C 10,6 C 93 % 1012,7 hPa 0,0 l/m 0 min 0 min 0 W/m 19,3 km/h (3 Bft) 100,00 %
07.12.2018 01:04 11,6 C 11,1 C 10,6 C 93 % 1012,6 hPa 0,0 l/m 0 min 0 min 0 W/m 16,1 km/h (3 Bft) 97,87 %
07.12.2018 01:06 11,6 C 11,1 C 10,6 C 93 % 1012,6 hPa 0,0 l/m 0 min 0 min 0 W/m 22,5 km/h (4 Bft) 100,00 %
07.12.2018 01:08 11,6 C 11,1 C 10,6 C 93 % 1012,6 hPa 0,0 l/m 0 min 0 min 0 W/m 16,1 km/h (3 Bft) 97,14 %
07.12.2018 01:10 11,6 C 11,1 C 10,6 C 92 % 1012,6 hPa 0,0 l/m 0 min 0 min 0 W/m 22,5 km/h (4 Bft) 100,00 %
07.12.2018 01:12 11,6 C 11,1 C 10,6 C 92 % 1012,5 hPa 0,0 l/m 0 min 0 min 0 W/m 25,7 km/h (4 Bft) 100,00 %
07.12.2018 01:14 11,6 C 11,1 C 10,6 C 92 % 1012,5 hPa 0,0 l/m 0 min 0 min 0 W/m 22,5 km/h (4 Bft) 100,00 %
07.12.2018 01:16 11,6 C 11,1 C 10,6 C 92 % 1012,4 hPa 0,0 l/m 0 min 0 min 0 W/m 16,1 km/h (3 Bft) 100,00 %
07.12.2018 01:18 11,7 C 11,1 C 10,6 C 92 % 1012,5 hPa 0,0 l/m 0 min 2 min 0 W/m 16,1 km/h (3 Bft) 95,74 %
07.12.2018 01:20 11,7 C 11,1 C 10,6 C 92 % 1012,4 hPa 0,0 l/m 0 min 2 min 0 W/m 16,1 km/h (3 Bft) 97,83 %
07.12.2018 01:22 11,7 C 11,1 C 10,6 C 92 % 1012,3 hPa 0,0 l/m 0 min 2 min 0 W/m 19,3 km/h (3 Bft) 97,87 %
07.12.2018 01:24 11,7 C 11,1 C 10,6 C 92 % 1012,4 hPa 0,0 l/m 0 min 2 min 0 W/m 25,7 km/h (4 Bft) 97,87 %
07.12.2018 01:26 11,7 C 11,1 C 10,6 C 92 % 1012,4 hPa 0,0 l/m 0 min 2 min 0 W/m 29,0 km/h (5 Bft) 97,87 %
07.12.2018 01:28 11,7 C 10,6 C 10,6 C 92 % 1012,4 hPa 0,0 l/m 0 min 2 min 0 W/m 22,5 km/h (4 Bft) 97,87 %
07.12.2018 01:30 11,7 C 10,6 C 10,6 C 92 % 1012,4 hPa 0,0 l/m 0 min 2 min 0 W/m 29,0 km/h (5 Bft) 95,74 %
07.12.2018 01:32 11,8 C 10,6 C 10,6 C 92 % 1012,5 hPa 0,0 l/m 0 min 2 min 0 W/m 38,6 km/h (5 Bft) 97,83 %
07.12.2018 01:34 11,8 C 10,6 C 10,6 C 92 % 1012,2 hPa 0,0 l/m 0 min 2 min 0 W/m 32,2 km/h (5 Bft) 97,87 %
07.12.2018 01:36 11,8 C 10,6 C 10,6 C 92 % 1012,3 hPa 0,0 l/m 0 min 2 min 0 W/m 29,0 km/h (5 Bft) 98,31 %
07.12.2018 01:38 11,8 C 10,6 C 10,6 C 92 % 1012,3 hPa 0,0 l/m 0 min 2 min 0 W/m 22,5 km/h (4 Bft) 97,14 %
07.12.2018 01:40 11,8 C 10,6 C 10,0 C 92 % 1012,2 hPa 0,0 l/m 0 min 2 min 0 W/m 19,3 km/h (3 Bft) 95,74 %
07.12.2018 01:42 11,8 C 10,6 C 10,6 C 92 % 1012,3 hPa 0,0 l/m 0 min 2 min 0 W/m 29,0 km/h (5 Bft) 97,87 %
07.12.2018 01:44 11,8 C 10,6 C 10,6 C 92 % 1012,2 hPa 0,0 l/m 0 min 2 min 0 W/m 32,2 km/h (5 Bft) 95,65 %
07.12.2018 01:46 11,8 C 10,6 C 10,6 C 93 % 1012,1 hPa 0,0 l/m 0 min 2 min 0 W/m 32,2 km/h (5 Bft) 95,74 %
07.12.2018 01:48 11,8 C 10,6 C 10,6 C 93 % 1012,2 hPa 0,0 l/m 0 min 2 min 0 W/m 29,0 km/h (5 Bft) 95,74 %
07.12.2018 01:50 11,8 C 10,6 C 10,6 C 93 % 1012,2 hPa 0,0 l/m 0 min 2 min 0 W/m 41,8 km/h (6 Bft) 97,87 %
07.12.2018 01:52 11,8 C 10,6 C 10,0 C 93 % 1012,2 hPa 0,0 l/m 0 min 2 min 0 W/m 16,1 km/h (3 Bft) 97,87 %
07.12.2018 01:54 11,8 C 10,6 C 10,0 C 93 % 1012,1 hPa 0,0 l/m 0 min 2 min 0 W/m 19,3 km/h (3 Bft) 97,87 %
07.12.2018 01:56 11,8 C 10,6 C 10,0 C 93 % 1012,0 hPa 0,0 l/m 0 min 2 min 0 W/m 19,3 km/h (3 Bft) 95,65 %
07.12.2018 01:58 11,8 C 10,6 C 10,0 C 93 % 1012,1 hPa 0,0 l/m 0 min 2 min 0 W/m 22,5 km/h (4 Bft) 97,87 %
07.12.2018 02:00 11,7 C 10,6 C 10,0 C 93 % 1012,1 hPa 0,0 l/m 0 min 2 min 0 W/m 29,0 km/h (5 Bft) 97,87 %
07.12.2018 02:02 11,7 C 10,6 C 10,0 C 93 % 1012,0 hPa 0,0 l/m 0 min 2 min 0 W/m 22,5 km/h (4 Bft) 97,87 %
07.12.2018 02:04 11,7 C 10,6 C 10,0 C 93 % 1012,0 hPa 0,0 l/m 0 min 2 min 0 W/m 25,7 km/h (4 Bft) 97,87 %
07.12.2018 02:06 11,7 C 10,6 C 10,0 C 93 % 1011,9 hPa 0,0 l/m 0 min 2 min 0 W/m 16,1 km/h (3 Bft) 98,28 %
07.12.2018 02:08 11,7 C 10,6 C 10,0 C 93 % 1011,9 hPa 0,0 l/m 0 min 2 min 0 W/m 16,1 km/h (3 Bft) 100,00 %
07.12.2018 02:10 11,7 C 10,6 C 10,0 C 93 % 1012,0 hPa 0,0 l/m 0 min 2 min 0 W/m 19,3 km/h (3 Bft) 100,00 %
07.12.2018 02:12 11,7 C 10,6 C 10,0 C 93 % 1011,9 hPa 0,2 l/m 0 min 2 min 0 W/m 25,7 km/h (4 Bft) 97,87 %
07.12.2018 02:14 11,7 C 10,6 C 10,0 C 94 % 1011,9 hPa 0,0 l/m 0 min 2 min 0 W/m 22,5 km/h (4 Bft) 100,00 %
07.12.2018 02:16 11,7 C 10,6 C 10,0 C 94 % 1011,9 hPa 0,0 l/m 0 min 2 min 0 W/m 22,5 km/h (4 Bft) 100,00 %
07.12.2018 02:18 11,7 C 10,6 C 10,0 C 94 % 1011,8 hPa 0,0 l/m 0 min 2 min 0 W/m 16,1 km/h (3 Bft) 100,00 %
07.12.2018 02:20 11,7 C 10,0 C 10,0 C 94 % 1011,9 hPa 0,0 l/m 0 min 2 min 0 W/m 22,5 km/h (4 Bft) 100,00 %
07.12.2018 02:22 11,6 C 10,0 C 10,0 C 94 % 1011,9 hPa 0,0 l/m 0 min 2 min 0 W/m 22,5 km/h (4 Bft) 100,00 %
07.12.2018 02:24 11,6 C 10,0 C 10,0 C 94 % 1011,8 hPa 0,0 l/m 0 min 2 min 0 W/m 22,5 km/h (4 Bft) 100,00 %
07.12.2018 02:26 11,6 C 10,0 C 10,0 C 94 % 1011,8 hPa 0,0 l/m 0 min 2 min 0 W/m 25,7 km/h (4 Bft) 100,00 %
07.12.2018 02:28 11,6 C 10,0 C 10,0 C 94 % 1012,0 hPa 0,0 l/m 0 min 2 min 0 W/m 25,7 km/h (4 Bft) 100,00 %
07.12.2018 02:30 11,6 C 10,0 C 10,0 C 94 % 1011,8 hPa 0,0 l/m 0 min 2 min 0 W/m 29,0 km/h (5 Bft) 95,65 %
07.12.2018 02:32 11,6 C 10,0 C 10,0 C 94 % 1011,8 hPa 0,0 l/m 0 min 2 min 0 W/m 16,1 km/h (3 Bft) 100,00 %
07.12.2018 02:34 11,6 C 10,0 C 10,0 C 94 % 1011,7 hPa 0,0 l/m 0 min 2 min 0 W/m 25,7 km/h (4 Bft) 100,00 %
07.12.2018 02:36 11,6 C 10,0 C 10,0 C 94 % 1011,6 hPa 0,0 l/m 0 min 2 min 0 W/m 25,7 km/h (4 Bft) 100,00 %
07.12.2018 02:38 11,5 C 10,0 C 10,0 C 94 % 1011,7 hPa 0,0 l/m 0 min 2 min 0 W/m 19,3 km/h (3 Bft) 100,00 %
07.12.2018 02:40 11,5 C 10,0 C 9,4 C 94 % 1011,7 hPa 0,0 l/m 0 min 2 min 0 W/m 12,9 km/h (3 Bft) 100,00 %
07.12.2018 02:42 11,5 C 10,0 C 9,4 C 94 % 1011,7 hPa 0,2 l/m 0 min 2 min 0 W/m 25,7 km/h (4 Bft) 97,83 %
07.12.2018 02:44 11,5 C 10,0 C 9,4 C 94 % 1011,7 hPa 0,0 l/m 0 min 2 min 0 W/m 22,5 km/h (4 Bft) 95,74 %
07.12.2018 02:46 11,4 C 10,0 C 9,4 C 95 % 1011,6 hPa 0,0 l/m 0 min 2 min 0 W/m 29,0 km/h (5 Bft) 97,87 %
07.12.2018 02:48 11,4 C 10,0 C 9,4 C 95 % 1011,7 hPa 0,0 l/m 0 min 2 min 0 W/m 25,7 km/h (4 Bft) 97,87 %
07.12.2018 02:50 11,4 C 10,0 C 9,4 C 95 % 1011,6 hPa 0,0 l/m 0 min 0 min 0 W/m 12,9 km/h (3 Bft) 95,74 %
07.12.2018 02:52 11,4 C 10,0 C 9,4 C 95 % 1011,6 hPa 0,0 l/m 0 min 0 min 0 W/m 16,1 km/h (3 Bft) 97,83 %
07.12.2018 02:54 11,4 C 10,0 C 9,4 C 95 % 1011,5 hPa 0,0 l/m 0 min 0 min 0 W/m 16,1 km/h (3 Bft) 97,87 %
07.12.2018 02:56 11,4 C 10,0 C 9,4 C 95 % 1011,6 hPa 0,0 l/m 0 min 0 min 0 W/m 19,3 km/h (3 Bft) 95,74 %
07.12.2018 02:58 11,4 C 10,0 C 9,4 C 95 % 1011,6 hPa 0,0 l/m 0 min 0 min 0 W/m 29,0 km/h (5 Bft) 95,74 %
07.12.2018 03:00 11,4 C 10,0 C 10,0 C 95 % 1011,7 hPa 0,0 l/m 0 min 0 min 0 W/m 32,2 km/h (5 Bft) 95,74 %
07.12.2018 03:02 11,4 C 10,0 C 10,0 C 95 % 1011,6 hPa 0,0 l/m 0 min 0 min 0 W/m 22,5 km/h (4 Bft) 95,74 %
07.12.2018 03:04 11,4 C 10,0 C 10,0 C 95 % 1011,5 hPa 0,0 l/m 0 min 0 min 0 W/m 25,7 km/h (4 Bft) 93,48 %
07.12.2018 03:06 11,4 C 10,0 C 10,0 C 95 % 1011,4 hPa 0,0 l/m 0 min 0 min 0 W/m 25,7 km/h (4 Bft) 96,61 %
07.12.2018 03:08 11,4 C 10,0 C 10,0 C 95 % 1011,4 hPa 0,0 l/m 0 min 0 min 0 W/m 16,1 km/h (3 Bft) 94,29 %
07.12.2018 03:10 11,4 C 10,0 C 10,0 C 95 % 1011,5 hPa 0,0 l/m 0 min 0 min 0 W/m 22,5 km/h (4 Bft) 95,74 %
07.12.2018 03:12 11,4 C 10,0 C 10,0 C 95 % 1011,4 hPa 0,0 l/m 0 min 0 min 0 W/m 25,7 km/h (4 Bft) 95,74 %
07.12.2018 03:14 11,4 C 10,0 C 10,0 C 95 % 1011,4 hPa 0,0 l/m 0 min 0 min 0 W/m 35,4 km/h (5 Bft) 95,74 %
07.12.2018 03:16 11,4 C 10,6 C 10,0 C 95 % 1011,3 hPa 0,0 l/m 0 min 0 min 0 W/m 22,5 km/h (4 Bft) 95,65 %
07.12.2018 03:18 11,4 C 10,6 C 10,0 C 95 % 1011,3 hPa 0,0 l/m 0 min 0 min 0 W/m 22,5 km/h (4 Bft) 95,74 %
07.12.2018 03:20 11,4 C 10,6 C 10,0 C 95 % 1011,2 hPa 0,0 l/m 0 min 0 min 0 W/m 16,1 km/h (3 Bft) 93,62 %
07.12.2018 03:22 11,4 C 10,6 C 10,0 C 95 % 1011,4 hPa 0,0 l/m 0 min 0 min 0 W/m 22,5 km/h (4 Bft) 93,62 %
07.12.2018 03:24 11,4 C 10,6 C 10,0 C 95 % 1011,2 hPa 0,0 l/m 0 min 0 min 0 W/m 29,0 km/h (5 Bft) 95,74 %
07.12.2018 03:26 11,4 C 10,6 C 10,0 C 95 % 1011,2 hPa 0,0 l/m 0 min 0 min 0 W/m 12,9 km/h (3 Bft) 95,74 %
07.12.2018 03:28 11,4 C 10,6 C 10,0 C 95 % 1011,1 hPa 0,0 l/m 0 min 0 min 0 W/m 32,2 km/h (5 Bft) 95,65 %
07.12.2018 03:30 11,4 C 10,6 C 10,0 C 95 % 1011,1 hPa 0,0 l/m 0 min 0 min 0 W/m 25,7 km/h (4 Bft) 95,74 %
07.12.2018 03:32 11,4 C 10,6 C 10,0 C 95 % 1011,2 hPa 0,0 l/m 0 min 0 min 0 W/m 29,0 km/h (5 Bft) 95,74 %
07.12.2018 03:34 11,4 C 10,6 C 10,0 C 95 % 1011,2 hPa 0,0 l/m 0 min 0 min 0 W/m 35,4 km/h (5 Bft) 95,74 %
07.12.2018 03:36 11,4 C 10,6 C 10,0 C 95 % 1011,1 hPa 0,0 l/m 0 min 0 min 0 W/m 25,7 km/h (4 Bft) 93,10 %
07.12.2018 03:38 11,4 C 10,6 C 10,0 C 95 % 1011,0 hPa 0,0 l/m 0 min 0 min 0 W/m 29,0 km/h (5 Bft) 94,59 %
07.12.2018 03:40 11,4 C 10,6 C 10,0 C 95 % 1011,1 hPa 0,0 l/m 0 min 0 min 0 W/m 35,4 km/h (5 Bft) 97,83 %
07.12.2018 03:42 11,4 C 10,6 C 10,0 C 95 % 1011,1 hPa 0,0 l/m 0 min 0 min 0 W/m 32,2 km/h (5 Bft) 100,00 %
07.12.2018 03:44 11,4 C 10,6 C 10,0 C 95 % 1011,1 hPa 0,0 l/m 0 min 0 min 0 W/m 32,2 km/h (5 Bft) 97,87 %
07.12.2018 03:46 11,4 C 10,6 C 10,0 C 95 % 1010,9 hPa 0,0 l/m 0 min 0 min 0 W/m 16,1 km/h (3 Bft) 100,00 %
07.12.2018 03:48 11,5 C 10,6 C 10,0 C 95 % 1011,0 hPa 0,0 l/m 0 min 0 min 0 W/m 19,3 km/h (3 Bft) 97,87 %
07.12.2018 03:50 11,4 C 10,6 C 10,0 C 95 % 1011,0 hPa 0,0 l/m 0 min 0 min 0 W/m 29,0 km/h (5 Bft) 97,87 %
07.12.2018 03:52 11,5 C 10,6 C 10,0 C 95 % 1011,0 hPa 0,0 l/m 0 min 0 min 0 W/m 29,0 km/h (5 Bft) 100,00 %
07.12.2018 03:54 11,5 C 10,6 C 10,0 C 95 % 1011,0 hPa 0,0 l/m 0 min 0 min 0 W/m 25,7 km/h (4 Bft) 97,87 %
07.12.2018 03:56 11,5 C 10,6 C 10,0 C 95 % 1010,9 hPa 0,0 l/m 0 min 0 min 0 W/m 19,3 km/h (3 Bft) 97,87 %
07.12.2018 03:58 11,5 C 10,6 C 10,0 C 95 % 1011,0 hPa 0,0 l/m 0 min 0 min 0 W/m 19,3 km/h (3 Bft) 100,00 %
07.12.2018 04:00 11,5 C 10,6 C 10,0 C 95 % 1010,8 hPa 0,0 l/m 0 min 0 min 0 W/m 19,3 km/h (3 Bft) 95,74 %
07.12.2018 04:02 11,5 C 10,6 C 10,0 C 95 % 1010,7 hPa 0,0 l/m 0 min 0 min 0 W/m 12,9 km/h (3 Bft) 100,00 %
07.12.2018 04:04 11,5 C 10,6 C 10,0 C 95 % 1010,8 hPa 0,0 l/m 0 min 0 min 0 W/m 22,5 km/h (4 Bft) 97,83 %
07.12.2018 04:06 11,5 C 10,6 C 10,0 C 95 % 1010,7 hPa 0,0 l/m 0 min 0 min 0 W/m 22,5 km/h (4 Bft) 100,00 %
07.12.2018 04:08 11,5 C 10,6 C 10,0 C 95 % 1010,7 hPa 0,0 l/m 0 min 0 min 0 W/m 29,0 km/h (5 Bft) 95,74 %
07.12.2018 04:10 11,5 C 10,6 C 10,0 C 95 % 1010,7 hPa 0,0 l/m 0 min 0 min 0 W/m 22,5 km/h (4 Bft) 97,87 %
07.12.2018 04:12 11,5 C 10,6 C 10,0 C 95 % 1010,7 hPa 0,0 l/m 0 min 0 min 0 W/m 32,2 km/h (5 Bft) 93,62 %
07.12.2018 04:14 11,5 C 10,6 C 10,0 C 95 % 1010,7 hPa 0,0 l/m 0 min 0 min 0 W/m 22,5 km/h (4 Bft) 95,74 %
07.12.2018 04:16 11,5 C 10,6 C 10,0 C 95 % 1010,6 hPa 0,0 l/m 0 min 0 min 0 W/m 29,0 km/h (5 Bft) 97,83 %
07.12.2018 04:18 11,5 C 10,6 C 10,6 C 95 % 1010,7 hPa 0,0 l/m 0 min 0 min 0 W/m 22,5 km/h (4 Bft) 97,87 %
07.12.2018 04:20 11,5 C 10,6 C 10,6 C 95 % 1010,6 hPa 0,0 l/m 0 min 0 min 0 W/m 29,0 km/h (5 Bft) 97,87 %
07.12.2018 04:22 11,5 C 10,6 C 10,6 C 95 % 1010,6 hPa 0,0 l/m 0 min 0 min 0 W/m 19,3 km/h (3 Bft) 97,87 %
07.12.2018 04:24 11,5 C 10,6 C 10,6 C 95 % 1010,6 hPa 0,0 l/m 0 min 0 min 0 W/m 22,5 km/h (4 Bft) 97,87 %
07.12.2018 04:26 11,5 C 10,6 C 10,6 C 95 % 1010,5 hPa 0,0 l/m 0 min 0 min 0 W/m 19,3 km/h (3 Bft) 97,83 %
07.12.2018 04:28 11,5 C 10,6 C 10,0 C 95 % 1010,5 hPa 0,0 l/m 0 min 0 min 0 W/m 12,9 km/h (3 Bft) 97,87 %
07.12.2018 04:30 11,5 C 10,6 C 10,0 C 95 % 1010,4 hPa 0,0 l/m 0 min 0 min 0 W/m 19,3 km/h (3 Bft) 97,87 %
07.12.2018 04:32 11,5 C 10,6 C 10,0 C 95 % 1010,3 hPa 0,0 l/m 0 min 0 min 0 W/m 32,2 km/h (5 Bft) 97,87 %
07.12.2018 04:34 11,5 C 10,6 C 10,0 C 95 % 1010,3 hPa 0,0 l/m 0 min 0 min 0 W/m 19,3 km/h (3 Bft) 95,74 %
07.12.2018 04:36 11,5 C 10,6 C 10,0 C 95 % 1010,3 hPa 0,0 l/m 0 min 0 min 0 W/m 25,7 km/h (4 Bft) 97,87 %
07.12.2018 04:38 11,5 C 10,6 C 10,0 C 95 % 1010,3 hPa 0,0 l/m 0 min 0 min 0 W/m 19,3 km/h (3 Bft) 97,83 %
07.12.2018 04:40 11,5 C 10,6 C 10,0 C 95 % 1010,3 hPa 0,0 l/m 0 min 0 min 0 W/m 32,2 km/h (5 Bft) 97,87 %
07.12.2018 04:42 11,5 C 10,6 C 10,6 C 95 % 1010,3 hPa 0,0 l/m 0 min 0 min 0 W/m 19,3 km/h (3 Bft) 97,87 %
07.12.2018 04:44 11,5 C 10,6 C 10,6 C 95 % 1010,1 hPa 0,0 l/m 0 min 0 min 0 W/m 19,3 km/h (3 Bft) 97,87 %
07.12.2018 04:46 11,5 C 10,6 C 10,6 C 95 % 1010,1 hPa 0,0 l/m 0 min 0 min 0 W/m 19,3 km/h (3 Bft) 97,87 %
07.12.2018 04:48 11,5 C 10,6 C 10,6 C 95 % 1010,1 hPa 0,0 l/m 0 min 0 min 0 W/m 22,5 km/h (4 Bft) 97,87 %
07.12.2018 04:50 11,5 C 10,6 C 10,6 C 95 % 1010,1 hPa 0,0 l/m 0 min 0 min 0 W/m 19,3 km/h (3 Bft) 97,83 %
07.12.2018 04:52 11,5 C 11,1 C 10,6 C 95 % 1010,1 hPa 0,0 l/m 0 min 2 min 0 W/m 25,7 km/h (4 Bft) 97,87 %
07.12.2018 04:54 11,5 C 11,1 C 10,6 C 95 % 1010,0 hPa 0,0 l/m 0 min 2 min 0 W/m 22,5 km/h (4 Bft) 97,87 %
07.12.2018 04:56 11,5 C 11,1 C 10,6 C 95 % 1010,2 hPa 0,0 l/m 0 min 0 min 0 W/m 22,5 km/h (4 Bft) 97,87 %
07.12.2018 04:58 11,5 C 11,1 C 10,6 C 95 % 1010,1 hPa 0,0 l/m 0 min 0 min 0 W/m 29,0 km/h (5 Bft) 97,87 %
07.12.2018 05:00 11,5 C 11,1 C 10,6 C 95 % 1009,9 hPa 0,0 l/m 0 min 0 min 0 W/m 22,5 km/h (4 Bft) 95,74 %
07.12.2018 05:02 11,5 C 11,1 C 10,6 C 95 % 1010,0 hPa 0,0 l/m 0 min 0 min 0 W/m 19,3 km/h (3 Bft) 95,65 %
07.12.2018 05:04 11,5 C 11,1 C 10,6 C 95 % 1010,0 hPa 0,0 l/m 0 min 2 min 0 W/m 19,3 km/h (3 Bft) 93,62 %
07.12.2018 05:06 11,6 C 10,6 C 10,6 C 95 % 1009,9 hPa 0,0 l/m 0 min 2 min 0 W/m 22,5 km/h (4 Bft) 100,00 %
07.12.2018 05:08 11,6 C 10,6 C 10,6 C 95 % 1009,8 hPa 0,0 l/m 0 min 2 min 0 W/m 19,3 km/h (3 Bft) 97,87 %
07.12.2018 05:10 11,6 C 10,6 C 10,0 C 95 % 1009,8 hPa 0,0 l/m 0 min 2 min 0 W/m 19,3 km/h (3 Bft) 100,00 %
07.12.2018 05:12 11,6 C 10,6 C 10,0 C 95 % 1009,8 hPa 0,0 l/m 0 min 2 min 0 W/m 16,1 km/h (3 Bft) 100,00 %
07.12.2018 05:14 11,6 C 10,6 C 10,0 C 95 % 1009,7 hPa 0,0 l/m 0 min 2 min 0 W/m 16,1 km/h (3 Bft) 100,00 %
07.12.2018 05:19 11,6 C 10,0 C 10,0 C 95 % 1009,7 hPa 0,0 l/m 0 min 5 min 0 W/m 25,7 km/h (4 Bft) 98,46 %
07.12.2018 05:20 11,6 C 10,0 C 10,0 C 95 % 1009,7 hPa 0,0 l/m 0 min 1 min 0 W/m 22,5 km/h (4 Bft) 100,00 %
07.12.2018 05:22 11,6 C 10,0 C 10,0 C 95 % 1009,7 hPa 0,0 l/m 0 min 2 min 0 W/m 19,3 km/h (3 Bft) 95,74 %
07.12.2018 05:24 11,5 C 10,0 C 10,0 C 95 % 1009,7 hPa 0,0 l/m 0 min 2 min 0 W/m 25,7 km/h (4 Bft) 100,00 %
07.12.2018 05:26 11,5 C 10,0 C 10,0 C 95 % 1009,7 hPa 0,0 l/m 0 min 2 min 0 W/m 29,0 km/h (5 Bft) 100,00 %
07.12.2018 05:28 11,5 C 10,0 C 10,0 C 95 % 1009,7 hPa 0,0 l/m 0 min 2 min 0 W/m 32,2 km/h (5 Bft) 100,00 %
07.12.2018 05:30 11,5 C 10,0 C 10,0 C 95 % 1009,6 hPa 0,0 l/m 0 min 2 min 0 W/m 22,5 km/h (4 Bft) 100,00 %
07.12.2018 05:32 11,5 C 10,0 C 10,0 C 95 % 1009,6 hPa 0,2 l/m 0 min 2 min 0 W/m 16,1 km/h (3 Bft) 97,87 %
07.12.2018 05:34 11,5 C 10,0 C 10,0 C 95 % 1009,7 hPa 0,0 l/m 0 min 2 min 0 W/m 32,2 km/h (5 Bft) 100,00 %
07.12.2018 05:36 11,5 C 10,0 C 9,4 C 95 % 1009,6 hPa 0,2 l/m 0 min 2 min 0 W/m 22,5 km/h (4 Bft) 100,00 %
07.12.2018 05:38 11,5 C 10,0 C 9,4 C 95 % 1009,6 hPa 0,0 l/m 0 min 2 min 0 W/m 22,5 km/h (4 Bft) 97,83 %
07.12.2018 05:40 11,4 C 10,0 C 9,4 C 95 % 1009,5 hPa 0,0 l/m 0 min 2 min 0 W/m 22,5 km/h (4 Bft) 95,74 %
07.12.2018 05:42 11,4 C 10,0 C 9,4 C 95 % 1009,4 hPa 0,0 l/m 0 min 2 min 0 W/m 22,5 km/h (4 Bft) 95,74 %
07.12.2018 05:44 11,4 C 10,0 C 9,4 C 95 % 1009,4 hPa 0,0 l/m 0 min 0 min 0 W/m 32,2 km/h (5 Bft) 97,87 %
07.12.2018 05:46 11,4 C 10,0 C 9,4 C 95 % 1009,5 hPa 0,0 l/m 0 min 2 min 0 W/m 22,5 km/h (4 Bft) 97,87 %
07.12.2018 05:48 11,4 C 10,0 C 9,4 C 95 % 1009,5 hPa 0,0 l/m 0 min 2 min 0 W/m 29,0 km/h (5 Bft) 97,83 %
07.12.2018 05:50 11,4 C 10,0 C 9,4 C 95 % 1009,5 hPa 0,0 l/m 0 min 2 min 0 W/m 25,7 km/h (4 Bft) 97,87 %
07.12.2018 05:52 11,4 C 10,0 C 9,4 C 95 % 1009,5 hPa 0,0 l/m 0 min 0 min 0 W/m 25,7 km/h (4 Bft) 97,87 %
07.12.2018 05:54 11,4 C 10,0 C 9,4 C 96 % 1009,4 hPa 0,0 l/m 0 min 0 min 0 W/m 22,5 km/h (4 Bft) 97,87 %
07.12.2018 05:56 11,3 C 10,0 C 9,4 C 96 % 1009,4 hPa 0,0 l/m 0 min 2 min 0 W/m 22,5 km/h (4 Bft) 97,87 %
07.12.2018 05:58 11,3 C 10,0 C 9,4 C 96 % 1009,4 hPa 0,0 l/m 0 min 0 min 0 W/m 22,5 km/h (4 Bft) 95,74 %
07.12.2018 06:00 11,3 C 10,0 C 9,4 C 96 % 1009,3 hPa 0,0 l/m 0 min 2 min 0 W/m 22,5 km/h (4 Bft) 97,83 %
07.12.2018 06:02 11,3 C 10,0 C 9,4 C 96 % 1009,4 hPa 0,0 l/m 0 min 2 min 0 W/m 22,5 km/h (4 Bft) 97,87 %
07.12.2018 06:04 11,3 C 10,0 C 9,4 C 96 % 1009,2 hPa 0,0 l/m 0 min 2 min 0 W/m 16,1 km/h (3 Bft) 97,87 %
07.12.2018 06:08 11,3 C 10,0 C 9,4 C 96 % 1009,2 hPa 0,0 l/m 0 min 4 min 0 W/m 25,7 km/h (4 Bft) 97,87 %
07.12.2018 06:10 11,3 C 10,0 C 9,4 C 96 % 1009,3 hPa 0,0 l/m 0 min 2 min 0 W/m 29,0 km/h (5 Bft) 93,62 %
07.12.2018 06:12 11,3 C 10,0 C 9,4 C 96 % 1009,3 hPa 0,0 l/m 0 min 0 min 0 W/m 22,5 km/h (4 Bft) 93,48 %
07.12.2018 06:14 11,3 C 10,0 C 9,4 C 96 % 1009,2 hPa 0,0 l/m 0 min 2 min 0 W/m 25,7 km/h (4 Bft) 95,74 %
07.12.2018 06:16 11,3 C 10,0 C 9,4 C 96 % 1009,1 hPa 0,0 l/m 0 min 2 min 0 W/m 25,7 km/h (4 Bft) 93,62 %
07.12.2018 06:18 11,3 C 10,0 C 9,4 C 96 % 1009,0 hPa 0,0 l/m 0 min 2 min 0 W/m 22,5 km/h (4 Bft) 93,62 %
07.12.2018 06:20 11,3 C 10,0 C 9,4 C 96 % 1009,1 hPa 0,0 l/m 0 min 2 min 0 W/m 22,5 km/h (4 Bft) 95,74 %
07.12.2018 06:22 11,3 C 10,0 C 9,4 C 96 % 1009,1 hPa 0,0 l/m 0 min 2 min 0 W/m 22,5 km/h (4 Bft) 95,74 %
07.12.2018 06:24 11,2 C 10,0 C 9,4 C 96 % 1008,9 hPa 0,0 l/m 0 min 2 min 0 W/m 25,7 km/h (4 Bft) 97,83 %
07.12.2018 06:26 11,2 C 10,0 C 9,4 C 96 % 1008,9 hPa 0,0 l/m 0 min 2 min 0 W/m 19,3 km/h (3 Bft) 97,87 %
07.12.2018 06:28 11,2 C 10,0 C 9,4 C 96 % 1008,9 hPa 0,0 l/m 0 min 2 min 0 W/m 22,5 km/h (4 Bft) 97,87 %
07.12.2018 06:30 11,2 C 10,0 C 9,4 C 96 % 1008,9 hPa 0,2 l/m 0 min 2 min 0 W/m 22,5 km/h (4 Bft) 97,87 %
07.12.2018 06:32 11,2 C 10,0 C 9,4 C 96 % 1008,9 hPa 0,0 l/m 0 min 2 min 0 W/m 19,3 km/h (3 Bft) 97,87 %
07.12.2018 06:34 11,2 C 10,0 C 9,4 C 96 % 1008,9 hPa 0,0 l/m 0 min 2 min 0 W/m 38,6 km/h (5 Bft) 97,87 %
07.12.2018 06:36 11,2 C 10,0 C 9,4 C 96 % 1008,8 hPa 0,0 l/m 0 min 2 min 0 W/m 29,0 km/h (5 Bft) 97,83 %
07.12.2018 06:38 11,2 C 10,0 C 9,4 C 96 % 1008,8 hPa 0,0 l/m 0 min 2 min 0 W/m 29,0 km/h (5 Bft) 93,62 %
07.12.2018 06:40 11,2 C 10,0 C 9,4 C 96 % 1008,9 hPa 0,0 l/m 0 min 2 min 0 W/m 16,1 km/h (3 Bft) 95,74 %
07.12.2018 06:42 11,2 C 10,0 C 9,4 C 96 % 1008,9 hPa 0,0 l/m 0 min 0 min 0 W/m 25,7 km/h (4 Bft) 97,87 %
07.12.2018 06:44 11,2 C 10,0 C 9,4 C 96 % 1008,7 hPa 0,0 l/m 0 min 0 min 0 W/m 25,7 km/h (4 Bft) 97,87 %
07.12.2018 06:46 11,2 C 10,0 C 9,4 C 96 % 1008,7 hPa 0,0 l/m 0 min 0 min 0 W/m 32,2 km/h (5 Bft) 97,56 %
07.12.2018 06:48 11,2 C 10,0 C 9,4 C 96 % 1008,5 hPa 0,0 l/m 0 min 0 min 0 W/m 22,5 km/h (4 Bft) 97,87 %
07.12.2018 06:50 11,2 C 10,0 C 9,4 C 96 % 1008,5 hPa 0,0 l/m 0 min 0 min 0 W/m 22,5 km/h (4 Bft) 95,74 %
07.12.2018 06:52 11,2 C 10,0 C 9,4 C 96 % 1008,5 hPa 0,0 l/m 0 min 0 min 0 W/m 29,0 km/h (5 Bft) 97,83 %
07.12.2018 06:54 11,2 C 10,0 C 9,4 C 96 % 1008,5 hPa 0,0 l/m 0 min 0 min 0 W/m 25,7 km/h (4 Bft) 95,74 %
07.12.2018 06:56 11,1 C 10,0 C 9,4 C 96 % 1008,5 hPa 0,0 l/m 0 min 0 min 0 W/m 29,0 km/h (5 Bft) 95,74 %
07.12.2018 06:58 11,1 C 10,0 C 9,4 C 96 % 1008,5 hPa 0,0 l/m 0 min 2 min 0 W/m 25,7 km/h (4 Bft) 85,11 %
07.12.2018 07:00 11,1 C 10,0 C 9,4 C 96 % 1008,5 hPa 0,0 l/m 0 min 2 min 0 W/m 22,5 km/h (4 Bft) 95,74 %
07.12.2018 07:02 11,1 C 10,0 C 9,4 C 96 % 1008,4 hPa 0,0 l/m 0 min 0 min 0 W/m 19,3 km/h (3 Bft) 97,92 %
07.12.2018 07:04 11,1 C 10,0 C 9,4 C 96 % 1008,3 hPa 0,0 l/m 0 min 0 min 0 W/m 19,3 km/h (3 Bft) 97,83 %
07.12.2018 07:06 11,1 C 10,0 C 9,4 C 96 % 1008,4 hPa 0,0 l/m 0 min 0 min 0 W/m 29,0 km/h (5 Bft) 97,87 %
07.12.2018 07:08 11,1 C 10,0 C 9,4 C 96 % 1008,4 hPa 0,0 l/m 0 min 0 min 0 W/m 32,2 km/h (5 Bft) 95,74 %
07.12.2018 07:10 11,1 C 10,0 C 9,4 C 96 % 1008,4 hPa 0,0 l/m 0 min 0 min 0 W/m 32,2 km/h (5 Bft) 97,87 %
07.12.2018 07:12 11,1 C 10,0 C 9,4 C 96 % 1008,4 hPa 0,0 l/m 0 min 0 min 0 W/m 29,0 km/h (5 Bft) 97,87 %
07.12.2018 07:14 11,1 C 10,0 C 9,4 C 96 % 1008,4 hPa 0,0 l/m 0 min 0 min 0 W/m 22,5 km/h (4 Bft) 95,74 %
07.12.2018 07:16 11,1 C 10,0 C 9,4 C 96 % 1008,3 hPa 0,0 l/m 0 min 0 min 0 W/m 16,1 km/h (3 Bft) 97,83 %
07.12.2018 07:18 11,1 C 10,0 C 9,4 C 96 % 1008,3 hPa 0,0 l/m 0 min 0 min 0 W/m 25,7 km/h (4 Bft) 97,87 %
07.12.2018 07:20 11,1 C 10,0 C 9,4 C 96 % 1008,3 hPa 0,0 l/m 0 min 0 min 0 W/m 19,3 km/h (3 Bft) 95,74 %
07.12.2018 07:22 11,1 C 10,0 C 9,4 C 96 % 1008,3 hPa 0,0 l/m 0 min 0 min 0 W/m 19,3 km/h (3 Bft) 95,74 %
07.12.2018 07:24 11,1 C 10,0 C 9,4 C 96 % 1008,3 hPa 0,0 l/m 0 min 0 min 0 W/m 25,7 km/h (4 Bft) 95,74 %
07.12.2018 07:26 11,1 C 10,0 C 9,4 C 96 % 1008,3 hPa 0,0 l/m 0 min 0 min 0 W/m 22,5 km/h (4 Bft) 97,83 %
07.12.2018 07:28 11,1 C 10,0 C 9,4 C 96 % 1008,3 hPa 0,0 l/m 0 min 0 min 0 W/m 22,5 km/h (4 Bft) 97,87 %
07.12.2018 07:30 11,1 C 10,0 C 9,4 C 96 % 1008,4 hPa 0,0 l/m 0 min 0 min 0 W/m 22,5 km/h (4 Bft) 97,87 %
07.12.2018 07:32 11,1 C 10,0 C 9,4 C 96 % 1008,4 hPa 0,0 l/m 0 min 0 min 0 W/m 19,3 km/h (3 Bft) 97,87 %
07.12.2018 07:34 11,1 C 10,0 C 9,4 C 96 % 1008,3 hPa 0,0 l/m 0 min 0 min 0 W/m 22,5 km/h (4 Bft) 97,87 %
07.12.2018 07:36 11,1 C 10,0 C 9,4 C 96 % 1008,2 hPa 0,0 l/m 0 min 0 min 0 W/m 19,3 km/h (3 Bft) 97,87 %
07.12.2018 07:38 11,1 C 10,0 C 9,4 C 96 % 1008,2 hPa 0,0 l/m 0 min 0 min 0 W/m 19,3 km/h (3 Bft) 97,83 %
07.12.2018 07:40 11,1 C 10,0 C 9,4 C 96 % 1008,3 hPa 0,0 l/m 0 min 0 min 0 W/m 19,3 km/h (3 Bft) 93,62 %
07.12.2018 07:42 11,1 C 10,0 C 9,4 C 96 % 1008,2 hPa 0,0 l/m 0 min 0 min 0 W/m 22,5 km/h (4 Bft) 95,74 %
07.12.2018 07:44 11,1 C 10,0 C 9,4 C 96 % 1008,3 hPa 0,0 l/m 0 min 0 min 0 W/m 22,5 km/h (4 Bft) 97,87 %
07.12.2018 07:46 11,1 C 10,0 C 9,4 C 96 % 1008,3 hPa 0,0 l/m 0 min 0 min 0 W/m 29,0 km/h (5 Bft) 97,92 %
07.12.2018 07:48 11,1 C 10,0 C 9,4 C 96 % 1008,2 hPa 0,0 l/m 0 min 0 min 0 W/m 32,2 km/h (5 Bft) 96,00 %
07.12.2018 07:50 11,1 C 10,0 C 9,4 C 96 % 1008,1 hPa 0,0 l/m 0 min 2 min 0 W/m 32,2 km/h (5 Bft) 97,83 %
07.12.2018 07:52 11,1 C 10,0 C 9,4 C 96 % 1008,1 hPa 0,0 l/m 0 min 0 min 0 W/m 32,2 km/h (5 Bft) 95,74 %
07.12.2018 07:54 11,1 C 10,0 C 9,4 C 96 % 1008,1 hPa 0,0 l/m 0 min 0 min 0 W/m 19,3 km/h (3 Bft) 95,74 %
07.12.2018 07:56 11,1 C 10,0 C 9,4 C 96 % 1008,1 hPa 0,0 l/m 0 min 0 min 0 W/m 32,2 km/h (5 Bft) 93,62 %
07.12.2018 07:58 11,1 C 10,0 C 9,4 C 96 % 1007,9 hPa 0,0 l/m 0 min 0 min 0 W/m 19,3 km/h (3 Bft) 95,74 %
07.12.2018 08:00 11,1 C 10,0 C 9,4 C 96 % 1008,0 hPa 0,0 l/m 0 min 2 min 0 W/m 32,2 km/h (5 Bft) 100,00 %
07.12.2018 08:02 11,1 C 10,0 C 9,4 C 96 % 1007,9 hPa 0,0 l/m 0 min 2 min 0 W/m 19,3 km/h (3 Bft) 100,00 %
07.12.2018 08:04 11,1 C 10,0 C 9,4 C 96 % 1007,9 hPa 0,0 l/m 0 min 0 min 0 W/m 12,9 km/h (3 Bft) 100,00 %
07.12.2018 08:06 11,1 C 10,0 C 9,4 C 96 % 1007,9 hPa 0,0 l/m 0 min 2 min 0 W/m 22,5 km/h (4 Bft) 100,00 %
07.12.2018 08:08 11,1 C 10,0 C 9,4 C 96 % 1007,8 hPa 0,0 l/m 0 min 0 min 0 W/m 19,3 km/h (3 Bft) 100,00 %
07.12.2018 08:10 11,1 C 10,0 C 9,4 C 96 % 1007,8 hPa 0,0 l/m 0 min 0 min 0 W/m 32,2 km/h (5 Bft) 100,00 %
07.12.2018 08:12 11,1 C 10,0 C 9,4 C 96 % 1007,9 hPa 0,0 l/m 0 min 2 min 0 W/m 41,8 km/h (6 Bft) 100,00 %
07.12.2018 08:14 11,1 C 10,0 C 9,4 C 96 % 1007,8 hPa 0,0 l/m 0 min 2 min 0 W/m 19,3 km/h (3 Bft) 100,00 %
07.12.2018 08:16 11,1 C 10,0 C 9,4 C 96 % 1007,8 hPa 0,0 l/m 0 min 2 min 0 W/m 19,3 km/h (3 Bft) 97,87 %
07.12.2018 08:18 11,1 C 10,0 C 9,4 C 96 % 1007,8 hPa 0,2 l/m 0 min 2 min 0 W/m 29,0 km/h (5 Bft) 100,00 %
07.12.2018 08:20 11,1 C 10,0 C 9,4 C 96 % 1007,8 hPa 0,0 l/m 0 min 2 min 0 W/m 35,4 km/h (5 Bft) 97,87 %
07.12.2018 08:22 11,1 C 10,0 C 9,4 C 96 % 1007,8 hPa 0,0 l/m 0 min 2 min 0 W/m 35,4 km/h (5 Bft) 97,87 %
07.12.2018 08:24 11,1 C 10,0 C 9,4 C 96 % 1007,8 hPa 0,0 l/m 0 min 2 min 0 W/m 29,0 km/h (5 Bft) 97,83 %
07.12.2018 08:26 11,1 C 10,0 C 9,4 C 96 % 1007,8 hPa 0,0 l/m 0 min 2 min 0 W/m 35,4 km/h (5 Bft) 97,87 %
07.12.2018 08:28 11,1 C 10,0 C 9,4 C 96 % 1007,8 hPa 0,0 l/m 0 min 2 min 0 W/m 38,6 km/h (5 Bft) 97,96 %
07.12.2018 08:30 11,1 C 10,0 C 9,4 C 96 % 1007,7 hPa 0,0 l/m 0 min 2 min 0 W/m 25,7 km/h (4 Bft) 97,87 %
07.12.2018 08:32 11,0 C 10,0 C 9,4 C 97 % 1007,6 hPa 0,0 l/m 0 min 0 min 0 W/m 22,5 km/h (4 Bft) 95,65 %
07.12.2018 08:34 11,0 C 10,0 C 9,4 C 97 % 1007,5 hPa 0,0 l/m 0 min 0 min 0 W/m 19,3 km/h (3 Bft) 95,74 %
07.12.2018 08:36 11,0 C 10,0 C 9,4 C 96 % 1007,6 hPa 0,0 l/m 0 min 0 min 0 W/m 35,4 km/h (5 Bft) 97,87 %
07.12.2018 08:38 11,0 C 10,0 C 9,4 C 96 % 1007,5 hPa 0,0 l/m 0 min 0 min 0 W/m 29,0 km/h (5 Bft) 97,92 %
07.12.2018 08:40 11,0 C 10,0 C 9,4 C 96 % 1007,6 hPa 0,0 l/m 0 min 2 min 0 W/m 32,2 km/h (5 Bft) 95,74 %
07.12.2018 08:42 11,0 C 10,0 C 9,4 C 96 % 1007,6 hPa 0,0 l/m 0 min 2 min 0 W/m 25,7 km/h (4 Bft) 97,87 %
07.12.2018 08:44 11,0 C 10,0 C 9,4 C 96 % 1007,5 hPa 0,0 l/m 0 min 2 min 1 W/m 22,5 km/h (4 Bft) 97,87 %
07.12.2018 08:46 11,0 C 10,0 C 9,4 C 96 % 1007,5 hPa 0,0 l/m 0 min 2 min 5 W/m 22,5 km/h (4 Bft) 95,65 %
07.12.2018 08:48 11,0 C 10,0 C 9,4 C 96 % 1007,6 hPa 0,0 l/m 0 min 2 min 5 W/m 25,7 km/h (4 Bft) 97,87 %
07.12.2018 08:50 10,9 C 10,0 C 9,4 C 96 % 1007,5 hPa 0,0 l/m 0 min 2 min 5 W/m 19,3 km/h (3 Bft) 95,74 %
07.12.2018 08:52 10,9 C 10,0 C 9,4 C 97 % 1007,5 hPa 0,0 l/m 0 min 0 min 7 W/m 22,5 km/h (4 Bft) 97,87 %
07.12.2018 08:54 10,9 C 10,0 C 9,4 C 97 % 1007,5 hPa 0,0 l/m 0 min 0 min 7 W/m 29,0 km/h (5 Bft) 97,87 %
07.12.2018 08:56 10,9 C 10,0 C 9,4 C 97 % 1007,4 hPa 0,0 l/m 0 min 0 min 7 W/m 25,7 km/h (4 Bft) 95,65 %
07.12.2018 08:58 10,9 C 10,0 C 9,4 C 97 % 1007,4 hPa 0,0 l/m 0 min 2 min 7 W/m 22,5 km/h (4 Bft) 97,87 %
07.12.2018 09:00 10,9 C 10,0 C 9,4 C 97 % 1007,4 hPa 0,0 l/m 0 min 0 min 9 W/m 32,2 km/h (5 Bft) 97,87 %
07.12.2018 09:02 10,9 C 10,0 C 9,4 C 97 % 1007,3 hPa 0,2 l/m 0 min 0 min 9 W/m 19,3 km/h (3 Bft) 97,87 %
07.12.2018 09:04 10,9 C 10,0 C 9,4 C 97 % 1007,3 hPa 0,0 l/m 0 min 0 min 11 W/m 22,5 km/h (4 Bft) 97,87 %
07.12.2018 09:06 10,9 C 10,0 C 9,4 C 97 % 1007,4 hPa 0,0 l/m 0 min 0 min 12 W/m 38,6 km/h (5 Bft) 100,00 %
07.12.2018 09:08 10,9 C 10,0 C 9,4 C 97 % 1007,3 hPa 0,0 l/m 0 min 0 min 14 W/m 25,7 km/h (4 Bft) 100,00 %
07.12.2018 09:10 10,9 C 10,0 C 9,4 C 97 % 1007,3 hPa 0,0 l/m 0 min 0 min 15 W/m 22,5 km/h (4 Bft) 100,00 %
07.12.2018 09:12 10,9 C 10,0 C 9,4 C 97 % 1007,3 hPa 0,0 l/m 0 min 0 min 16 W/m 32,2 km/h (5 Bft) 100,00 %
07.12.2018 09:14 10,9 C 10,0 C 9,4 C 97 % 1007,2 hPa 0,0 l/m 0 min 0 min 16 W/m 22,5 km/h (4 Bft) 97,87 %
07.12.2018 09:16 10,9 C 10,0 C 9,4 C 97 % 1007,2 hPa 0,0 l/m 0 min 0 min 18 W/m 19,3 km/h (3 Bft) 100,00 %
07.12.2018 09:18 10,9 C 10,0 C 9,4 C 97 % 1007,2 hPa 0,0 l/m 0 min 0 min 19 W/m 32,2 km/h (5 Bft) 100,00 %
07.12.2018 09:20 10,9 C 10,0 C 9,4 C 97 % 1007,1 hPa 0,0 l/m 0 min 0 min 19 W/m 25,7 km/h (4 Bft) 97,87 %
07.12.2018 09:22 10,9 C 10,0 C 9,4 C 97 % 1007,1 hPa 0,0 l/m 0 min 0 min 18 W/m 45,1 km/h (6 Bft) 100,00 %
07.12.2018 09:24 10,9 C 10,0 C 9,4 C 97 % 1007,1 hPa 0,0 l/m 0 min 0 min 19 W/m 25,7 km/h (4 Bft) 100,00 %
07.12.2018 09:26 10,9 C 10,0 C 9,4 C 97 % 1007,1 hPa 0,0 l/m 0 min 0 min 20 W/m 25,7 km/h (4 Bft) 100,00 %
07.12.2018 09:28 10,9 C 10,0 C 9,4 C 97 % 1007,0 hPa 0,0 l/m 0 min 0 min 22 W/m 32,2 km/h (5 Bft) 100,00 %
07.12.2018 09:30 10,9 C 10,0 C 9,4 C 97 % 1007,0 hPa 0,0 l/m 0 min 0 min 22 W/m 19,3 km/h (3 Bft) 100,00 %
07.12.2018 09:32 10,9 C 10,0 C 9,4 C 96 % 1006,9 hPa 0,0 l/m 0 min 0 min 26 W/m 19,3 km/h (3 Bft) 100,00 %
07.12.2018 09:34 10,9 C 10,0 C 9,4 C 96 % 1007,0 hPa 0,0 l/m 0 min 0 min 29 W/m 32,2 km/h (5 Bft) 100,00 %
07.12.2018 09:36 11,0 C 10,0 C 9,4 C 96 % 1006,9 hPa 0,0 l/m 0 min 0 min 28 W/m 29,0 km/h (5 Bft) 97,87 %
07.12.2018 09:38 11,0 C 10,0 C 9,4 C 96 % 1007,0 hPa 0,0 l/m 0 min 0 min 29 W/m 35,4 km/h (5 Bft) 97,87 %
07.12.2018 09:40 11,0 C 10,0 C 9,4 C 96 % 1006,8 hPa 0,0 l/m 0 min 0 min 29 W/m 19,3 km/h (3 Bft) 97,87 %
07.12.2018 09:42 11,0 C 10,0 C 9,4 C 96 % 1006,8 hPa 0,0 l/m 0 min 0 min 30 W/m 51,5 km/h (7 Bft) 95,74 %
07.12.2018 09:44 11,0 C 10,0 C 9,4 C 96 % 1006,8 hPa 0,0 l/m 0 min 0 min 31 W/m 54,7 km/h (7 Bft) 97,87 %
07.12.2018 09:46 11,0 C 10,0 C 9,4 C 96 % 1006,8 hPa 0,0 l/m 0 min 0 min 28 W/m 19,3 km/h (3 Bft) 97,83 %
07.12.2018 09:48 11,1 C 10,0 C 9,4 C 96 % 1006,6 hPa 0,0 l/m 0 min 0 min 29 W/m 25,7 km/h (4 Bft) 95,74 %
07.12.2018 09:50 11,1 C 10,0 C 9,4 C 96 % 1006,7 hPa 0,0 l/m 0 min 0 min 30 W/m 32,2 km/h (5 Bft) 95,74 %
07.12.2018 09:52 11,1 C 10,0 C 10,0 C 96 % 1006,6 hPa 0,0 l/m 0 min 0 min 29 W/m 32,2 km/h (5 Bft) 97,87 %
07.12.2018 09:54 11,1 C 10,0 C 10,0 C 96 % 1006,6 hPa 0,0 l/m 0 min 0 min 27 W/m 32,2 km/h (5 Bft) 95,74 %
07.12.2018 09:56 11,1 C 10,0 C 10,0 C 96 % 1006,6 hPa 0,0 l/m 0 min 0 min 25 W/m 41,8 km/h (6 Bft) 95,74 %
07.12.2018 09:58 11,1 C 10,0 C 10,0 C 96 % 1006,5 hPa 0,0 l/m 0 min 0 min 25 W/m 25,7 km/h (4 Bft) 97,83 %
07.12.2018 10:00 11,1 C 10,0 C 10,0 C 96 % 1006,5 hPa 0,0 l/m 0 min 0 min 26 W/m 32,2 km/h (5 Bft) 97,87 %
07.12.2018 10:02 11,1 C 10,0 C 10,0 C 96 % 1006,5 hPa 0,0 l/m 0 min 0 min 28 W/m 19,3 km/h (3 Bft) 93,62 %
07.12.2018 10:04 11,1 C 10,0 C 10,0 C 96 % 1006,4 hPa 0,0 l/m 0 min 0 min 28 W/m 32,2 km/h (5 Bft) 93,62 %
07.12.2018 10:06 11,1 C 10,0 C 10,0 C 96 % 1006,4 hPa 0,0 l/m 0 min 0 min 26 W/m 29,0 km/h (5 Bft) 95,74 %
07.12.2018 10:08 11,1 C 10,0 C 10,0 C 95 % 1006,4 hPa 0,0 l/m 0 min 0 min 25 W/m 29,0 km/h (5 Bft) 95,65 %
07.12.2018 10:10 11,1 C 10,0 C 10,0 C 95 % 1006,5 hPa 0,0 l/m 0 min 0 min 26 W/m 22,5 km/h (4 Bft) 95,74 %
07.12.2018 10:12 11,2 C 10,0 C 10,6 C 95 % 1006,4 hPa 0,0 l/m 0 min 0 min 29 W/m 19,3 km/h (3 Bft) 95,74 %
07.12.2018 10:14 11,2 C 10,0 C 10,6 C 95 % 1006,2 hPa 0,0 l/m 0 min 0 min 27 W/m 29,0 km/h (5 Bft) 93,62 %
07.12.2018 10:16 11,2 C 10,6 C 10,6 C 95 % 1006,2 hPa 0,0 l/m 0 min 0 min 25 W/m 35,4 km/h (5 Bft) 93,62 %
07.12.2018 10:18 11,2 C 10,6 C 10,6 C 95 % 1006,1 hPa 0,0 l/m 0 min 0 min 25 W/m 35,4 km/h (5 Bft) 95,74 %
07.12.2018 10:20 11,2 C 10,6 C 10,6 C 95 % 1006,2 hPa 0,0 l/m 0 min 0 min 22 W/m 29,0 km/h (5 Bft) 95,74 %
07.12.2018 10:22 11,2 C 10,6 C 10,6 C 95 % 1006,2 hPa 0,0 l/m 0 min 0 min 22 W/m 25,7 km/h (4 Bft) 95,65 %
07.12.2018 10:24 11,2 C 10,6 C 10,6 C 95 % 1006,2 hPa 0,0 l/m 0 min 0 min 21 W/m 29,0 km/h (5 Bft) 95,74 %
07.12.2018 10:26 11,3 C 10,6 C 10,6 C 95 % 1006,1 hPa 0,0 l/m 0 min 0 min 23 W/m 32,2 km/h (5 Bft) 95,74 %
07.12.2018 10:28 11,3 C 10,6 C 10,6 C 94 % 1006,2 hPa 0,0 l/m 0 min 0 min 25 W/m 45,1 km/h (6 Bft) 95,74 %
07.12.2018 10:30 11,3 C 10,6 C 10,6 C 94 % 1006,2 hPa 0,0 l/m 0 min 0 min 24 W/m 32,2 km/h (5 Bft) 95,74 %
07.12.2018 10:32 11,3 C 10,6 C 10,6 C 94 % 1006,1 hPa 0,0 l/m 0 min 0 min 23 W/m 32,2 km/h (5 Bft) 93,48 %
07.12.2018 10:34 11,4 C 10,6 C 10,6 C 94 % 1006,1 hPa 0,0 l/m 0 min 0 min 25 W/m 29,0 km/h (5 Bft) 95,74 %
07.12.2018 10:36 11,4 C 10,6 C 10,6 C 94 % 1005,9 hPa 0,0 l/m 0 min 0 min 25 W/m 25,7 km/h (4 Bft) 97,87 %
07.12.2018 10:38 11,4 C 10,6 C 10,6 C 94 % 1005,9 hPa 0,0 l/m 0 min 0 min 26 W/m 29,0 km/h (5 Bft) 97,87 %
07.12.2018 10:40 11,4 C 10,6 C 10,6 C 94 % 1005,8 hPa 0,0 l/m 0 min 0 min 28 W/m 32,2 km/h (5 Bft) 97,87 %
07.12.2018 10:42 11,4 C 10,6 C 10,6 C 94 % 1005,8 hPa 0,0 l/m 0 min 0 min 27 W/m 35,4 km/h (5 Bft) 97,87 %
07.12.2018 10:44 11,4 C 10,6 C 10,6 C 93 % 1005,8 hPa 0,0 l/m 0 min 0 min 26 W/m 45,1 km/h (6 Bft) 97,83 %
07.12.2018 10:46 11,4 C 10,6 C 10,6 C 93 % 1005,8 hPa 0,0 l/m 0 min 0 min 26 W/m 29,0 km/h (5 Bft) 97,87 %
07.12.2018 10:48 11,4 C 10,6 C 10,6 C 93 % 1005,7 hPa 0,0 l/m 0 min 0 min 33 W/m 41,8 km/h (6 Bft) 97,87 %
07.12.2018 10:50 11,5 C 10,6 C 10,6 C 93 % 1005,8 hPa 0,0 l/m 0 min 0 min 35 W/m 22,5 km/h (4 Bft) 97,87 %
07.12.2018 10:52 11,5 C 10,6 C 10,6 C 93 % 1005,7 hPa 0,0 l/m 0 min 0 min 33 W/m 22,5 km/h (4 Bft) 97,87 %
07.12.2018 10:54 11,5 C 10,6 C 10,6 C 93 % 1005,7 hPa 0,0 l/m 0 min 0 min 29 W/m 32,2 km/h (5 Bft) 97,87 %
07.12.2018 10:56 11,5 C 10,6 C 10,6 C 93 % 1005,7 hPa 0,0 l/m 0 min 0 min 26 W/m 35,4 km/h (5 Bft) 97,83 %
07.12.2018 10:58 11,6 C 10,6 C 10,6 C 93 % 1005,7 hPa 0,0 l/m 0 min 0 min 23 W/m 19,3 km/h (3 Bft) 100,00 %
07.12.2018 11:00 11,6 C 10,6 C 10,6 C 93 % 1005,7 hPa 0,0 l/m 0 min 0 min 21 W/m 16,1 km/h (3 Bft) 97,87 %
07.12.2018 11:02 11,6 C 10,6 C 10,6 C 93 % 1005,7 hPa 0,0 l/m 0 min 0 min 25 W/m 22,5 km/h (4 Bft) 95,74 %
07.12.2018 11:04 11,6 C 10,6 C 10,6 C 93 % 1005,6 hPa 0,0 l/m 0 min 0 min 29 W/m 35,4 km/h (5 Bft) 97,87 %
07.12.2018 11:06 11,6 C 10,6 C 10,6 C 92 % 1005,5 hPa 0,0 l/m 0 min 0 min 32 W/m 29,0 km/h (5 Bft) 97,87 %
07.12.2018 11:08 11,6 C 10,6 C 10,6 C 92 % 1005,6 hPa 0,0 l/m 0 min 0 min 35 W/m 29,0 km/h (5 Bft) 95,65 %
07.12.2018 11:10 11,6 C 10,6 C 10,6 C 92 % 1005,5 hPa 0,0 l/m 0 min 0 min 41 W/m 45,1 km/h (6 Bft) 97,87 %
07.12.2018 11:12 11,7 C 10,6 C 10,6 C 92 % 1005,3 hPa 0,0 l/m 0 min 0 min 41 W/m 48,3 km/h (6 Bft) 100,00 %
07.12.2018 11:14 11,7 C 10,6 C 10,6 C 92 % 1005,2 hPa 0,0 l/m 0 min 0 min 37 W/m 51,5 km/h (7 Bft) 97,87 %
07.12.2018 11:16 11,7 C 10,6 C 10,6 C 92 % 1005,2 hPa 0,0 l/m 0 min 0 min 35 W/m 19,3 km/h (3 Bft) 97,87 %
07.12.2018 11:18 11,7 C 10,6 C 10,6 C 92 % 1005,0 hPa 0,0 l/m 0 min 0 min 33 W/m 29,0 km/h (5 Bft) 97,83 %
07.12.2018 11:20 11,7 C 10,6 C 10,6 C 92 % 1005,0 hPa 0,0 l/m 0 min 0 min 39 W/m 22,5 km/h (4 Bft) 97,87 %
07.12.2018 11:22 11,7 C 11,1 C 10,6 C 91 % 1005,0 hPa 0,0 l/m 0 min 0 min 40 W/m 22,5 km/h (4 Bft) 97,87 %
07.12.2018 11:24 11,8 C 11,1 C 10,6 C 91 % 1004,9 hPa 0,0 l/m 0 min 0 min 40 W/m 35,4 km/h (5 Bft) 97,87 %
07.12.2018 11:26 11,8 C 11,1 C 10,6 C 91 % 1005,0 hPa 0,0 l/m 0 min 0 min 42 W/m 25,7 km/h (4 Bft) 93,62 %
07.12.2018 11:28 11,8 C 11,1 C 11,1 C 91 % 1004,9 hPa 0,0 l/m 0 min 0 min 40 W/m 25,7 km/h (4 Bft) 97,87 %
07.12.2018 11:30 11,8 C 11,1 C 11,1 C 91 % 1004,8 hPa 0,0 l/m 0 min 0 min 41 W/m 29,0 km/h (5 Bft) 97,83 %
07.12.2018 11:32 11,8 C 11,1 C 11,1 C 91 % 1004,8 hPa 0,0 l/m 0 min 0 min 40 W/m 19,3 km/h (3 Bft) 97,87 %
07.12.2018 11:34 11,8 C 11,7 C 11,1 C 91 % 1004,9 hPa 0,0 l/m 0 min 0 min 37 W/m 25,7 km/h (4 Bft) 97,87 %
07.12.2018 11:36 11,8 C 11,7 C 11,1 C 91 % 1004,9 hPa 0,0 l/m 0 min 0 min 39 W/m 29,0 km/h (5 Bft) 95,74 %
07.12.2018 11:38 11,9 C 11,7 C 11,1 C 91 % 1004,8 hPa 0,0 l/m 0 min 0 min 39 W/m 25,7 km/h (4 Bft) 95,74 %
07.12.2018 11:40 11,9 C 11,7 C 11,1 C 91 % 1004,8 hPa 0,0 l/m 0 min 0 min 41 W/m 25,7 km/h (4 Bft) 97,87 %
07.12.2018 11:42 11,9 C 11,7 C 11,1 C 90 % 1004,8 hPa 0,0 l/m 0 min 0 min 55 W/m 32,2 km/h (5 Bft) 97,83 %
07.12.2018 11:44 11,9 C 11,7 C 11,1 C 90 % 1004,7 hPa 0,0 l/m 0 min 0 min 72 W/m 22,5 km/h (4 Bft) 100,00 %
07.12.2018 11:46 11,9 C 11,7 C 11,1 C 90 % 1004,7 hPa 0,0 l/m 0 min 0 min 77 W/m 22,5 km/h (4 Bft) 95,74 %
07.12.2018 11:48 12,0 C 12,2 C 11,1 C 90 % 1004,7 hPa 0,0 l/m 0 min 0 min 73 W/m 25,7 km/h (4 Bft) 100,00 %
07.12.2018 11:50 12,0 C 12,2 C 11,1 C 90 % 1004,6 hPa 0,0 l/m 0 min 0 min 71 W/m 29,0 km/h (5 Bft) 100,00 %
07.12.2018 11:52 12,1 C 12,2 C 11,1 C 90 % 1004,6 hPa 0,0 l/m 0 min 0 min 59 W/m 25,7 km/h (4 Bft) 100,00 %
07.12.2018 11:54 12,1 C 12,2 C 11,7 C 89 % 1004,4 hPa 0,0 l/m 0 min 0 min 54 W/m 25,7 km/h (4 Bft) 100,00 %
07.12.2018 11:56 12,1 C 12,2 C 11,7 C 89 % 1004,4 hPa 0,0 l/m 0 min 0 min 56 W/m 32,2 km/h (5 Bft) 97,87 %
07.12.2018 11:58 12,2 C 12,2 C 11,7 C 89 % 1004,3 hPa 0,0 l/m 0 min 0 min 59 W/m 32,2 km/h (5 Bft) 100,00 %
07.12.2018 12:00 12,2 C 12,2 C 11,7 C 89 % 1004,2 hPa 0,0 l/m 0 min 0 min 61 W/m 25,7 km/h (4 Bft) 100,00 %
07.12.2018 12:02 12,2 C 12,2 C 11,7 C 89 % 1004,1 hPa 0,0 l/m 0 min 0 min 59 W/m 35,4 km/h (5 Bft) 100,00 %
07.12.2018 12:04 12,2 C 12,2 C 11,7 C 89 % 1004,1 hPa 0,0 l/m 0 min 0 min 51 W/m 25,7 km/h (4 Bft) 100,00 %
07.12.2018 12:08 12,3 C 12,2 C 11,7 C 88 % 1004,0 hPa 0,0 l/m 0 min 0 min 46 W/m 25,7 km/h (4 Bft) 100,00 %
07.12.2018 12:10 12,3 C 12,2 C 11,7 C 88 % 1003,9 hPa 0,0 l/m 0 min 0 min 42 W/m 32,2 km/h (5 Bft) 100,00 %
07.12.2018 12:12 12,3 C 12,2 C 11,7 C 88 % 1003,8 hPa 0,0 l/m 0 min 0 min 39 W/m 22,5 km/h (4 Bft) 100,00 %
07.12.2018 12:14 12,3 C 12,2 C 11,7 C 88 % 1003,9 hPa 0,0 l/m 0 min 0 min 35 W/m 22,5 km/h (4 Bft) 100,00 %
07.12.2018 12:16 12,4 C 12,2 C 11,7 C 88 % 1003,7 hPa 0,0 l/m 0 min 0 min 30 W/m 22,5 km/h (4 Bft) 100,00 %
07.12.2018 12:18 12,4 C 12,2 C 11,7 C 88 % 1003,7 hPa 0,0 l/m 0 min 0 min 28 W/m 25,7 km/h (4 Bft) 100,00 %
07.12.2018 12:20 12,4 C 12,2 C 11,7 C 87 % 1003,7 hPa 0,0 l/m 0 min 0 min 30 W/m 22,5 km/h (4 Bft) 100,00 %
07.12.2018 12:22 12,4 C 12,2 C 11,7 C 87 % 1003,6 hPa 0,0 l/m 0 min 0 min 30 W/m 32,2 km/h (5 Bft) 97,87 %
07.12.2018 12:24 12,4 C 12,2 C 11,7 C 87 % 1003,5 hPa 0,0 l/m 0 min 0 min 32 W/m 38,6 km/h (5 Bft) 100,00 %
07.12.2018 12:26 12,4 C 12,2 C 11,7 C 87 % 1003,5 hPa 0,0 l/m 0 min 0 min 32 W/m 32,2 km/h (5 Bft) 100,00 %
07.12.2018 12:28 12,5 C 12,2 C 11,7 C 87 % 1003,5 hPa 0,0 l/m 0 min 0 min 34 W/m 51,5 km/h (7 Bft) 100,00 %
07.12.2018 12:30 12,5 C 12,2 C 11,7 C 87 % 1003,4 hPa 0,0 l/m 0 min 0 min 35 W/m 45,1 km/h (6 Bft) 100,00 %
07.12.2018 12:32 12,5 C 12,2 C 11,7 C 86 % 1003,3 hPa 0,0 l/m 0 min 0 min 36 W/m 38,6 km/h (5 Bft) 100,00 %
07.12.2018 12:34 12,6 C 12,2 C 11,7 C 86 % 1003,2 hPa 0,0 l/m 0 min 0 min 38 W/m 38,6 km/h (5 Bft) 100,00 %
07.12.2018 12:36 12,6 C 12,2 C 11,7 C 86 % 1002,9 hPa 0,0 l/m 0 min 0 min 40 W/m 25,7 km/h (4 Bft) 95,74 %
07.12.2018 12:38 12,6 C 12,2 C 11,7 C 86 % 1002,9 hPa 0,0 l/m 0 min 0 min 44 W/m 25,7 km/h (4 Bft) 100,00 %
07.12.2018 12:40 12,6 C 12,2 C 11,7 C 86 % 1002,8 hPa 0,0 l/m 0 min 0 min 46 W/m 32,2 km/h (5 Bft) 100,00 %
07.12.2018 12:42 12,6 C 12,2 C 11,7 C 86 % 1002,6 hPa 0,0 l/m 0 min 0 min 56 W/m 41,8 km/h (6 Bft) 100,00 %
07.12.2018 12:44 12,6 C 12,2 C 11,7 C 86 % 1002,5 hPa 0,0 l/m 0 min 0 min 58 W/m 45,1 km/h (6 Bft) 100,00 %
07.12.2018 12:46 12,6 C 12,2 C 11,7 C 86 % 1002,3 hPa 0,0 l/m 0 min 0 min 59 W/m 35,4 km/h (5 Bft) 97,87 %
07.12.2018 12:48 12,6 C 12,2 C 11,7 C 86 % 1002,3 hPa 0,0 l/m 0 min 0 min 62 W/m 32,2 km/h (5 Bft) 100,00 %
07.12.2018 12:50 12,6 C 12,2 C 11,7 C 86 % 1002,2 hPa 0,0 l/m 0 min 0 min 63 W/m 22,5 km/h (4 Bft) 97,87 %
07.12.2018 12:52 12,6 C 12,2 C 11,7 C 86 % 1002,2 hPa 0,0 l/m 0 min 0 min 66 W/m 38,6 km/h (5 Bft) 100,00 %
07.12.2018 12:54 12,6 C 12,2 C 11,7 C 86 % 1002,2 hPa 0,0 l/m 0 min 0 min 69 W/m 51,5 km/h (7 Bft) 100,00 %
07.12.2018 12:56 12,6 C 12,2 C 11,7 C 86 % 1002,1 hPa 0,0 l/m 0 min 0 min 72 W/m 25,7 km/h (4 Bft) 100,00 %
07.12.2018 12:58 12,7 C 12,2 C 11,7 C 86 % 1002,0 hPa 0,0 l/m 0 min 0 min 76 W/m 32,2 km/h (5 Bft) 95,74 %
07.12.2018 13:00 12,7 C 12,2 C 11,7 C 85 % 1002,0 hPa 0,0 l/m 0 min 0 min 77 W/m 48,3 km/h (6 Bft) 95,74 %
07.12.2018 13:02 12,7 C 12,2 C 11,7 C 85 % 1001,9 hPa 0,0 l/m 0 min 0 min 76 W/m 35,4 km/h (5 Bft) 97,87 %
07.12.2018 13:04 12,7 C 12,2 C 11,7 C 85 % 1001,8 hPa 0,0 l/m 0 min 0 min 73 W/m 25,7 km/h (4 Bft) 97,83 %
07.12.2018 13:06 12,7 C 12,2 C 11,7 C 85 % 1001,8 hPa 0,0 l/m 0 min 0 min 76 W/m 32,2 km/h (5 Bft) 97,87 %
07.12.2018 13:08 12,7 C 12,8 C 11,7 C 85 % 1001,7 hPa 0,0 l/m 0 min 0 min 75 W/m 25,7 km/h (4 Bft) 95,74 %
07.12.2018 13:10 12,7 C 12,8 C 11,7 C 85 % 1001,7 hPa 0,0 l/m 0 min 0 min 79 W/m 32,2 km/h (5 Bft) 95,74 %
07.12.2018 13:12 12,7 C 12,8 C 11,7 C 85 % 1001,6 hPa 0,0 l/m 0 min 0 min 86 W/m 41,8 km/h (6 Bft) 93,62 %
07.12.2018 13:14 12,7 C 12,8 C 11,7 C 85 % 1001,6 hPa 0,0 l/m 0 min 0 min 105 W/m 38,6 km/h (5 Bft) 95,74 %
07.12.2018 13:16 12,7 C 12,8 C 11,7 C 85 % 1001,4 hPa 0,0 l/m 0 min 0 min 115 W/m 32,2 km/h (5 Bft) 95,65 %
07.12.2018 13:18 12,7 C 13,3 C 11,7 C 85 % 1001,3 hPa 0,0 l/m 2 min 0 min 153 W/m 29,0 km/h (5 Bft) 95,74 %
07.12.2018 13:20 12,8 C 13,9 C 12,2 C 85 % 1001,3 hPa 0,0 l/m 2 min 0 min 184 W/m 22,5 km/h (4 Bft) 93,62 %
07.12.2018 13:22 12,9 C 13,9 C 12,2 C 84 % 1001,2 hPa 0,0 l/m 2 min 0 min 195 W/m 41,8 km/h (6 Bft) 95,74 %
07.12.2018 13:24 12,9 C 15,6 C 12,2 C 84 % 1001,0 hPa 0,0 l/m 2 min 0 min 269 W/m 35,4 km/h (5 Bft) 95,74 %
07.12.2018 13:26 13,1 C 15,6 C 12,2 C 84 % 1000,9 hPa 0,0 l/m 2 min 0 min 310 W/m 29,0 km/h (5 Bft) 95,74 %
07.12.2018 13:28 13,1 C 14,4 C 12,2 C 83 % 1000,8 hPa 0,0 l/m 2 min 0 min 209 W/m 29,0 km/h (5 Bft) 95,65 %
07.12.2018 13:30 13,1 C 15,6 C 12,2 C 83 % 1000,8 hPa 0,0 l/m 0 min 0 min 101 W/m 32,2 km/h (5 Bft) 95,74 %
07.12.2018 13:32 13,2 C 16,1 C 12,2 C 83 % 1000,7 hPa 0,0 l/m 2 min 0 min 236 W/m 57,9 km/h (7 Bft) 95,74 %
07.12.2018 13:34 13,2 C 14,4 C 12,2 C 83 % 1000,7 hPa 0,0 l/m 2 min 0 min 250 W/m 32,2 km/h (5 Bft) 95,74 %
07.12.2018 13:36 13,2 C 13,9 C 12,2 C 83 % 1000,8 hPa 0,0 l/m 0 min 0 min 100 W/m 22,5 km/h (4 Bft) 100,00 %
07.12.2018 13:38 13,1 C 13,3 C 11,7 C 83 % 1000,7 hPa 0,0 l/m 0 min 0 min 88 W/m 22,5 km/h (4 Bft) 93,62 %
07.12.2018 13:40 13,1 C 12,8 C 12,2 C 83 % 1000,7 hPa 0,0 l/m 0 min 0 min 115 W/m 38,6 km/h (5 Bft) 89,13 %
07.12.2018 13:42 13,1 C 12,8 C 12,2 C 83 % 1000,7 hPa 0,0 l/m 0 min 0 min 118 W/m 29,0 km/h (5 Bft) 91,49 %
07.12.2018 13:44 13,0 C 12,8 C 12,2 C 83 % 1000,6 hPa 0,0 l/m 0 min 0 min 114 W/m 25,7 km/h (4 Bft) 89,36 %
07.12.2018 13:46 13,1 C 12,8 C 12,2 C 83 % 1000,6 hPa 0,0 l/m 0 min 0 min 106 W/m 22,5 km/h (4 Bft) 93,62 %
07.12.2018 13:48 13,1 C 12,8 C 12,2 C 83 % 1000,5 hPa 0,0 l/m 0 min 0 min 81 W/m 22,5 km/h (4 Bft) 93,62 %
07.12.2018 13:50 13,1 C 12,8 C 12,2 C 83 % 1000,5 hPa 0,0 l/m 0 min 0 min 60 W/m 32,2 km/h (5 Bft) 93,48 %
07.12.2018 13:52 13,1 C 12,8 C 12,2 C 83 % 1000,4 hPa 0,0 l/m 0 min 0 min 44 W/m 32,2 km/h (5 Bft) 91,49 %
07.12.2018 13:54 13,1 C 12,8 C 11,7 C 83 % 1000,5 hPa 0,0 l/m 0 min 0 min 39 W/m 22,5 km/h (4 Bft) 93,62 %
07.12.2018 13:56 13,0 C 12,8 C 11,7 C 83 % 1000,5 hPa 0,0 l/m 0 min 0 min 38 W/m 22,5 km/h (4 Bft) 95,74 %
07.12.2018 13:58 13,0 C 12,8 C 11,7 C 83 % 1000,4 hPa 0,0 l/m 0 min 0 min 52 W/m 25,7 km/h (4 Bft) 93,62 %
07.12.2018 14:00 13,0 C 12,8 C 12,2 C 83 % 1000,4 hPa 0,0 l/m 0 min 0 min 103 W/m 22,5 km/h (4 Bft) 95,74 %
07.12.2018 14:02 13,0 C 13,3 C 12,2 C 83 % 1000,3 hPa 0,0 l/m 2 min 0 min 154 W/m 22,5 km/h (4 Bft) 93,48 %
07.12.2018 14:04 13,0 C 12,8 C 12,2 C 83 % 1000,2 hPa 0,0 l/m 0 min 0 min 114 W/m 32,2 km/h (5 Bft) 95,74 %
07.12.2018 14:06 13,1 C 12,8 C 12,2 C 83 % 1000,2 hPa 0,0 l/m 0 min 0 min 66 W/m 22,5 km/h (4 Bft) 97,87 %
07.12.2018 14:08 13,1 C 12,8 C 12,2 C 83 % 1000,1 hPa 0,0 l/m 0 min 0 min 48 W/m 32,2 km/h (5 Bft) 97,87 %
07.12.2018 14:10 13,1 C 12,8 C 12,2 C 83 % 1000,1 hPa 0,0 l/m 0 min 0 min 46 W/m 19,3 km/h (3 Bft) 97,87 %
07.12.2018 14:12 13,1 C 12,8 C 11,7 C 83 % 1000,1 hPa 0,0 l/m 0 min 0 min 42 W/m 22,5 km/h (4 Bft) 95,74 %
07.12.2018 14:14 13,0 C 12,8 C 11,7 C 83 % 1000,0 hPa 0,0 l/m 0 min 0 min 32 W/m 32,2 km/h (5 Bft) 97,83 %
07.12.2018 14:16 13,0 C 12,2 C 11,7 C 83 % 1000,1 hPa 0,0 l/m 0 min 0 min 24 W/m 16,1 km/h (3 Bft) 97,87 %
07.12.2018 14:18 13,0 C 12,2 C 11,7 C 83 % 1000,0 hPa 0,0 l/m 0 min 0 min 29 W/m 16,1 km/h (3 Bft) 97,87 %
07.12.2018 14:20 13,0 C 12,2 C 11,7 C 83 % 1000,0 hPa 0,0 l/m 0 min 0 min 32 W/m 22,5 km/h (4 Bft) 97,87 %
07.12.2018 14:22 13,0 C 12,2 C 11,7 C 83 % 1000,0 hPa 0,0 l/m 0 min 0 min 24 W/m 32,2 km/h (5 Bft) 100,00 %
07.12.2018 14:24 13,0 C 12,2 C 11,7 C 83 % 1000,0 hPa 0,0 l/m 0 min 0 min 17 W/m 19,3 km/h (3 Bft) 97,87 %
07.12.2018 14:26 13,0 C 12,2 C 11,7 C 83 % 1000,0 hPa 0,0 l/m 0 min 0 min 13 W/m 32,2 km/h (5 Bft) 100,00 %
07.12.2018 14:28 13,0 C 12,2 C 11,7 C 83 % 999,9 hPa 0,0 l/m 0 min 0 min 10 W/m 22,5 km/h (4 Bft) 97,87 %
07.12.2018 14:30 13,0 C 12,2 C 11,7 C 83 % 999,8 hPa 0,0 l/m 0 min 0 min 12 W/m 29,0 km/h (5 Bft) 100,00 %
07.12.2018 14:32 12,9 C 12,2 C 11,7 C 83 % 1000,0 hPa 0,0 l/m 0 min 0 min 13 W/m 19,3 km/h (3 Bft) 100,00 %
07.12.2018 14:34 13,0 C 12,2 C 11,7 C 83 % 1000,0 hPa 0,0 l/m 0 min 0 min 15 W/m 19,3 km/h (3 Bft) 100,00 %
07.12.2018 14:36 12,9 C 12,2 C 11,7 C 83 % 999,9 hPa 0,0 l/m 0 min 0 min 18 W/m 22,5 km/h (4 Bft) 97,87 %
07.12.2018 14:38 12,9 C 12,2 C 11,7 C 82 % 999,9 hPa 0,0 l/m 0 min 0 min 14 W/m 32,2 km/h (5 Bft) 100,00 %
07.12.2018 14:40 13,0 C 12,2 C 11,7 C 82 % 999,9 hPa 0,0 l/m 0 min 0 min 13 W/m 35,4 km/h (5 Bft) 100,00 %
07.12.2018 14:42 12,9 C 12,2 C 11,7 C 82 % 1000,0 hPa 0,0 l/m 0 min 0 min 27 W/m 35,4 km/h (5 Bft) 100,00 %
07.12.2018 14:44 12,9 C 12,2 C 11,7 C 82 % 999,8 hPa 0,0 l/m 0 min 0 min 39 W/m 48,3 km/h (6 Bft) 100,00 %
07.12.2018 14:46 12,9 C 12,2 C 11,7 C 82 % 999,7 hPa 0,0 l/m 0 min 0 min 42 W/m 41,8 km/h (6 Bft) 100,00 %
07.12.2018 14:48 12,9 C 12,2 C 11,7 C 82 % 999,8 hPa 0,0 l/m 0 min 0 min 64 W/m 57,9 km/h (7 Bft) 97,87 %
07.12.2018 14:50 12,9 C 12,2 C 11,7 C 82 % 999,6 hPa 0,0 l/m 0 min 0 min 81 W/m 29,0 km/h (5 Bft) 100,00 %
07.12.2018 14:52 12,9 C 12,2 C 11,7 C 82 % 999,7 hPa 0,0 l/m 0 min 0 min 64 W/m 32,2 km/h (5 Bft) 100,00 %
07.12.2018 14:54 12,9 C 12,2 C 11,7 C 82 % 999,4 hPa 0,0 l/m 0 min 0 min 43 W/m 25,7 km/h (4 Bft) 100,00 %
07.12.2018 14:56 12,8 C 12,2 C 11,7 C 82 % 999,4 hPa 0,0 l/m 0 min 0 min 30 W/m 41,8 km/h (6 Bft) 100,00 %
07.12.2018 14:58 12,8 C 12,2 C 11,7 C 82 % 999,2 hPa 0,0 l/m 0 min 0 min 18 W/m 41,8 km/h (6 Bft) 100,00 %
07.12.2018 15:00 12,8 C 12,2 C 11,7 C 81 % 999,2 hPa 0,0 l/m 0 min 0 min 16 W/m 54,7 km/h (7 Bft) 100,00 %
07.12.2018 15:02 12,8 C 12,2 C 11,7 C 81 % 999,1 hPa 0,0 l/m 0 min 0 min 19 W/m 35,4 km/h (5 Bft) 100,00 %
07.12.2018 15:04 12,7 C 12,2 C 11,7 C 81 % 999,2 hPa 0,0 l/m 0 min 0 min 15 W/m 35,4 km/h (5 Bft) 97,87 %
07.12.2018 15:06 12,7 C 12,2 C 11,7 C 81 % 999,1 hPa 0,0 l/m 0 min 0 min 13 W/m 57,9 km/h (7 Bft) 100,00 %
07.12.2018 15:08 12,7 C 12,2 C 11,7 C 81 % 999,1 hPa 0,0 l/m 0 min 0 min 9 W/m 51,5 km/h (7 Bft) 100,00 %
07.12.2018 15:10 12,7 C 12,2 C 11,7 C 81 % 999,0 hPa 0,0 l/m 0 min 0 min 8 W/m 32,2 km/h (5 Bft) 97,87 %
07.12.2018 15:12 12,7 C 10,6 C 11,1 C 81 % 999,0 hPa 0,0 l/m 0 min 2 min 5 W/m 45,1 km/h (6 Bft) 97,87 %
07.12.2018 15:14 12,6 C 10,0 C 10,0 C 82 % 999,0 hPa 0,0 l/m 0 min 2 min 5 W/m 41,8 km/h (6 Bft) 100,00 %
07.12.2018 15:16 12,6 C 9,4 C 9,4 C 83 % 998,8 hPa 0,0 l/m 0 min 2 min 5 W/m 25,7 km/h (4 Bft) 100,00 %
07.12.2018 15:18 12,5 C 9,4 C 9,4 C 84 % 998,9 hPa 0,2 l/m 0 min 2 min 7 W/m 38,6 km/h (5 Bft) 100,00 %
07.12.2018 15:20 12,4 C 9,4 C 9,4 C 84 % 998,7 hPa 0,0 l/m 0 min 2 min 10 W/m 48,3 km/h (6 Bft) 100,00 %
07.12.2018 15:22 12,3 C 9,4 C 9,4 C 84 % 998,7 hPa 0,0 l/m 0 min 2 min 17 W/m 38,6 km/h (5 Bft) 100,00 %
07.12.2018 15:24 12,2 C 9,4 C 9,4 C 85 % 998,6 hPa 0,0 l/m 0 min 2 min 19 W/m 32,2 km/h (5 Bft) 100,00 %
07.12.2018 15:26 12,1 C 9,4 C 9,4 C 85 % 998,6 hPa 0,0 l/m 0 min 2 min 17 W/m 48,3 km/h (6 Bft) 100,00 %
07.12.2018 15:28 12,0 C 10,0 C 9,4 C 85 % 998,5 hPa 0,0 l/m 0 min 2 min 15 W/m 45,1 km/h (6 Bft) 100,00 %
07.12.2018 15:30 11,9 C 10,0 C 9,4 C 85 % 998,5 hPa 0,0 l/m 0 min 2 min 11 W/m 29,0 km/h (5 Bft) 100,00 %
07.12.2018 15:32 11,9 C 10,0 C 9,4 C 86 % 998,5 hPa 0,0 l/m 0 min 2 min 7 W/m 25,7 km/h (4 Bft) 100,00 %
07.12.2018 15:34 11,8 C 10,0 C 9,4 C 86 % 998,4 hPa 0,0 l/m 0 min 0 min 7 W/m 22,5 km/h (4 Bft) 100,00 %
07.12.2018 15:36 11,8 C 10,0 C 10,0 C 86 % 998,2 hPa 0,0 l/m 0 min 2 min 7 W/m 32,2 km/h (5 Bft) 100,00 %
07.12.2018 15:38 11,8 C 10,0 C 10,0 C 86 % 998,2 hPa 0,0 l/m 0 min 0 min 5 W/m 38,6 km/h (5 Bft) 100,00 %
07.12.2018 15:40 11,7 C 10,6 C 10,0 C 86 % 998,2 hPa 0,0 l/m 0 min 0 min 5 W/m 29,0 km/h (5 Bft) 100,00 %
07.12.2018 15:42 11,7 C 10,6 C 10,0 C 86 % 998,1 hPa 0,0 l/m 0 min 0 min 5 W/m 35,4 km/h (5 Bft) 100,00 %
07.12.2018 15:44 11,7 C 10,6 C 10,0 C 86 % 998,1 hPa 0,0 l/m 0 min 0 min 5 W/m 25,7 km/h (4 Bft) 100,00 %
07.12.2018 15:46 11,7 C 10,6 C 10,0 C 86 % 998,0 hPa 0,0 l/m 0 min 2 min 7 W/m 38,6 km/h (5 Bft) 100,00 %
07.12.2018 15:48 11,7 C 10,6 C 10,6 C 86 % 998,0 hPa 0,0 l/m 0 min 0 min 6 W/m 35,4 km/h (5 Bft) 100,00 %
07.12.2018 15:50 11,7 C 10,6 C 10,6 C 85 % 998,1 hPa 0,0 l/m 0 min 0 min 5 W/m 38,6 km/h (5 Bft) 100,00 %
07.12.2018 15:52 11,7 C 10,6 C 10,6 C 85 % 998,0 hPa 0,0 l/m 0 min 0 min 0 W/m 32,2 km/h (5 Bft) 100,00 %
07.12.2018 15:54 11,7 C 10,6 C 10,6 C 85 % 998,0 hPa 0,0 l/m 0 min 0 min 0 W/m 25,7 km/h (4 Bft) 97,87 %
07.12.2018 15:56 11,7 C 10,6 C 10,0 C 86 % 998,0 hPa 0,0 l/m 0 min 0 min 0 W/m 19,3 km/h (3 Bft) 100,00 %
07.12.2018 15:58 11,7 C 10,0 C 10,0 C 86 % 998,0 hPa 0,0 l/m 0 min 2 min 0 W/m 29,0 km/h (5 Bft) 100,00 %
07.12.2018 16:00 11,7 C 9,4 C 9,4 C 86 % 998,0 hPa 0,0 l/m 0 min 2 min 0 W/m 35,4 km/h (5 Bft) 100,00 %
07.12.2018 16:02 11,6 C 9,4 C 9,4 C 87 % 997,9 hPa 0,0 l/m 0 min 2 min 0 W/m 45,1 km/h (6 Bft) 100,00 %
07.12.2018 16:04 11,6 C 8,9 C 8,9 C 87 % 997,9 hPa 0,0 l/m 0 min 2 min 0 W/m 35,4 km/h (5 Bft) 95,74 %
07.12.2018 16:06 11,5 C 8,9 C 8,9 C 87 % 997,9 hPa 0,2 l/m 0 min 2 min 0 W/m 32,2 km/h (5 Bft) 97,87 %
07.12.2018 16:08 11,5 C 8,9 C 8,9 C 88 % 997,9 hPa 0,0 l/m 0 min 2 min 0 W/m 32,2 km/h (5 Bft) 100,00 %
07.12.2018 16:10 11,4 C 8,9 C 8,9 C 88 % 997,9 hPa 0,2 l/m 0 min 2 min 0 W/m 25,7 km/h (4 Bft) 97,87 %
07.12.2018 16:12 11,3 C 8,9 C 8,9 C 88 % 998,0 hPa 0,0 l/m 0 min 2 min 0 W/m 41,8 km/h (6 Bft) 95,74 %
07.12.2018 16:14 11,3 C 8,9 C 8,9 C 89 % 997,7 hPa 0,0 l/m 0 min 2 min 0 W/m 29,0 km/h (5 Bft) 97,87 %
07.12.2018 16:16 11,2 C 8,9 C 8,9 C 89 % 997,7 hPa 0,0 l/m 0 min 2 min 0 W/m 25,7 km/h (4 Bft) 97,87 %
07.12.2018 16:18 11,2 C 8,9 C 8,3 C 89 % 997,7 hPa 0,2 l/m 0 min 2 min 0 W/m 35,4 km/h (5 Bft) 97,87 %
07.12.2018 16:20 11,1 C 8,9 C 8,3 C 89 % 997,6 hPa 0,0 l/m 0 min 2 min 0 W/m 29,0 km/h (5 Bft) 95,65 %
07.12.2018 16:22 11,1 C 8,9 C 8,3 C 90 % 997,6 hPa 0,0 l/m 0 min 2 min 0 W/m 19,3 km/h (3 Bft) 95,74 %
07.12.2018 16:24 11,0 C 8,9 C 8,3 C 90 % 997,5 hPa 0,2 l/m 0 min 2 min 0 W/m 22,5 km/h (4 Bft) 95,74 %
07.12.2018 16:26 11,0 C 8,9 C 8,3 C 90 % 997,6 hPa 0,0 l/m 0 min 2 min 0 W/m 32,2 km/h (5 Bft) 95,74 %
07.12.2018 16:28 10,9 C 8,9 C 8,3 C 90 % 997,5 hPa 0,0 l/m 0 min 2 min 0 W/m 41,8 km/h (6 Bft) 91,49 %
07.12.2018 16:30 10,9 C 8,9 C 8,3 C 91 % 997,4 hPa 0,2 l/m 0 min 2 min 0 W/m 25,7 km/h (4 Bft) 93,62 %
07.12.2018 16:32 10,8 C 8,9 C 8,3 C 91 % 997,4 hPa 0,0 l/m 0 min 2 min 0 W/m 32,2 km/h (5 Bft) 91,30 %
07.12.2018 16:34 10,8 C 8,9 C 8,3 C 91 % 997,4 hPa 0,2 l/m 0 min 2 min 0 W/m 22,5 km/h (4 Bft) 95,74 %
07.12.2018 16:36 10,8 C 8,9 C 8,3 C 91 % 997,3 hPa 0,0 l/m 0 min 2 min 0 W/m 22,5 km/h (4 Bft) 91,49 %
07.12.2018 16:38 10,8 C 8,9 C 8,3 C 91 % 997,3 hPa 0,0 l/m 0 min 2 min 0 W/m 19,3 km/h (3 Bft) 93,62 %
07.12.2018 16:40 10,7 C 8,9 C 8,3 C 91 % 997,3 hPa 0,0 l/m 0 min 2 min 0 W/m 22,5 km/h (4 Bft) 91,49 %
07.12.2018 16:42 10,7 C 8,9 C 8,3 C 92 % 997,3 hPa 0,2 l/m 0 min 2 min 0 W/m 25,7 km/h (4 Bft) 91,49 %
07.12.2018 16:44 10,7 C 8,9 C 8,3 C 92 % 997,2 hPa 0,0 l/m 0 min 2 min 0 W/m 16,1 km/h (3 Bft) 93,48 %
07.12.2018 16:46 10,7 C 8,9 C 8,3 C 92 % 997,1 hPa 0,0 l/m 0 min 2 min 0 W/m 16,1 km/h (3 Bft) 93,62 %
07.12.2018 16:48 10,6 C 8,9 C 8,3 C 92 % 997,0 hPa 0,0 l/m 0 min 2 min 0 W/m 29,0 km/h (5 Bft) 93,62 %
07.12.2018 16:50 10,6 C 8,9 C 8,3 C 92 % 997,0 hPa 0,2 l/m 0 min 2 min 0 W/m 29,0 km/h (5 Bft) 93,62 %
07.12.2018 16:52 10,6 C 8,9 C 8,3 C 92 % 996,9 hPa 0,0 l/m 0 min 2 min 0 W/m 35,4 km/h (5 Bft) 93,62 %
07.12.2018 16:54 10,6 C 8,9 C 8,3 C 93 % 996,9 hPa 0,0 l/m 0 min 2 min 0 W/m 32,2 km/h (5 Bft) 91,49 %
07.12.2018 16:56 10,5 C 8,9 C 8,3 C 93 % 996,9 hPa 0,0 l/m 0 min 2 min 0 W/m 22,5 km/h (4 Bft) 93,48 %
07.12.2018 16:58 10,5 C 8,9 C 8,3 C 93 % 996,9 hPa 0,0 l/m 0 min 2 min 0 W/m 22,5 km/h (4 Bft) 95,74 %
07.12.2018 17:00 10,5 C 8,9 C 8,3 C 93 % 996,9 hPa 0,0 l/m 0 min 2 min 0 W/m 29,0 km/h (5 Bft) 95,74 %
07.12.2018 17:02 10,4 C 8,9 C 8,3 C 93 % 996,8 hPa 0,2 l/m 0 min 2 min 0 W/m 29,0 km/h (5 Bft) 95,74 %
07.12.2018 17:04 10,4 C 8,9 C 8,3 C 93 % 996,8 hPa 0,0 l/m 0 min 2 min 0 W/m 29,0 km/h (5 Bft) 95,74 %
07.12.2018 17:06 10,4 C 8,9 C 8,3 C 93 % 996,7 hPa 0,0 l/m 0 min 2 min 0 W/m 25,7 km/h (4 Bft) 95,74 %
07.12.2018 17:08 10,4 C 8,9 C 8,3 C 93 % 996,7 hPa 0,0 l/m 0 min 2 min 0 W/m 19,3 km/h (3 Bft) 93,48 %
07.12.2018 17:10 10,4 C 8,9 C 8,3 C 93 % 996,6 hPa 0,0 l/m 0 min 2 min 0 W/m 22,5 km/h (4 Bft) 95,74 %
07.12.2018 17:12 10,4 C 8,9 C 8,3 C 94 % 996,6 hPa 0,0 l/m 0 min 2 min 0 W/m 22,5 km/h (4 Bft) 97,87 %
07.12.2018 17:14 10,4 C 8,9 C 8,3 C 94 % 996,6 hPa 0,2 l/m 0 min 2 min 0 W/m 29,0 km/h (5 Bft) 97,87 %
07.12.2018 17:16 10,3 C 8,9 C 8,3 C 94 % 996,5 hPa 0,0 l/m 0 min 2 min 0 W/m 35,4 km/h (5 Bft) 97,87 %
07.12.2018 17:18 10,3 C 8,9 C 8,3 C 94 % 996,5 hPa 0,0 l/m 0 min 2 min 0 W/m 25,7 km/h (4 Bft) 93,62 %
07.12.2018 17:20 10,3 C 8,9 C 8,3 C 94 % 996,4 hPa 0,0 l/m 0 min 2 min 0 W/m 22,5 km/h (4 Bft) 97,83 %
07.12.2018 17:22 10,3 C 8,9 C 8,3 C 94 % 996,4 hPa 0,0 l/m 0 min 2 min 0 W/m 19,3 km/h (3 Bft) 97,87 %
07.12.2018 17:24 10,3 C 8,9 C 8,3 C 94 % 996,3 hPa 0,0 l/m 0 min 0 min 0 W/m 12,9 km/h (3 Bft) 95,74 %
07.12.2018 17:26 10,3 C 8,9 C 8,3 C 94 % 996,3 hPa 0,0 l/m 0 min 2 min 0 W/m 16,1 km/h (3 Bft) 97,87 %
07.12.2018 17:28 10,3 C 8,9 C 8,3 C 94 % 996,3 hPa 0,0 l/m 0 min 2 min 0 W/m 29,0 km/h (5 Bft) 95,74 %
07.12.2018 17:30 10,3 C 8,9 C 8,3 C 94 % 996,3 hPa 0,0 l/m 0 min 2 min 0 W/m 19,3 km/h (3 Bft) 100,00 %
07.12.2018 17:32 10,3 C 8,9 C 8,3 C 94 % 996,2 hPa 0,0 l/m 0 min 2 min 0 W/m 29,0 km/h (5 Bft) 100,00 %
07.12.2018 17:34 10,3 C 8,9 C 8,3 C 94 % 996,2 hPa 0,0 l/m 0 min 2 min 0 W/m 19,3 km/h (3 Bft) 100,00 %
07.12.2018 17:36 10,3 C 8,9 C 8,3 C 94 % 996,2 hPa 0,0 l/m 0 min 2 min 0 W/m 19,3 km/h (3 Bft) 97,87 %
07.12.2018 17:38 10,2 C 8,9 C 8,3 C 94 % 996,1 hPa 0,0 l/m 0 min 2 min 0 W/m 25,7 km/h (4 Bft) 100,00 %
07.12.2018 17:40 10,2 C 8,9 C 8,3 C 94 % 996,1 hPa 0,0 l/m 0 min 2 min 0 W/m 22,5 km/h (4 Bft) 100,00 %
07.12.2018 17:42 10,2 C 8,9 C 8,3 C 94 % 996,0 hPa 0,2 l/m 0 min 2 min 0 W/m 35,4 km/h (5 Bft) 100,00 %
07.12.2018 17:44 10,2 C 8,9 C 8,3 C 94 % 996,0 hPa 0,0 l/m 0 min 2 min 0 W/m 29,0 km/h (5 Bft) 100,00 %
07.12.2018 17:46 10,2 C 8,9 C 8,3 C 94 % 995,9 hPa 0,0 l/m 0 min 2 min 0 W/m 25,7 km/h (4 Bft) 97,87 %
07.12.2018 17:48 10,2 C 8,9 C 8,3 C 94 % 995,9 hPa 0,0 l/m 0 min 2 min 0 W/m 22,5 km/h (4 Bft) 100,00 %
07.12.2018 17:50 10,2 C 8,9 C 8,3 C 94 % 996,0 hPa 0,0 l/m 0 min 2 min 0 W/m 22,5 km/h (4 Bft) 100,00 %
07.12.2018 17:52 10,2 C 8,9 C 8,3 C 94 % 995,9 hPa 0,0 l/m 0 min 2 min 0 W/m 22,5 km/h (4 Bft) 97,87 %
07.12.2018 17:54 10,2 C 8,9 C 8,3 C 95 % 995,7 hPa 0,0 l/m 0 min 2 min 0 W/m 22,5 km/h (4 Bft) 91,30 %
07.12.2018 17:56 10,2 C 8,9 C 8,3 C 95 % 995,8 hPa 0,0 l/m 0 min 2 min 0 W/m 22,5 km/h (4 Bft) 97,87 %
07.12.2018 17:58 10,2 C 8,9 C 8,3 C 95 % 995,7 hPa 0,2 l/m 0 min 2 min 0 W/m 25,7 km/h (4 Bft) 97,87 %
07.12.2018 18:00 10,2 C 8,9 C 8,3 C 95 % 995,8 hPa 0,0 l/m 0 min 2 min 0 W/m 22,5 km/h (4 Bft) 97,87 %
07.12.2018 18:02 10,2 C 8,9 C 8,3 C 95 % 995,9 hPa 0,0 l/m 0 min 2 min 0 W/m 22,5 km/h (4 Bft) 100,00 %
07.12.2018 18:04 10,2 C 8,9 C 8,3 C 95 % 995,7 hPa 0,0 l/m 0 min 2 min 0 W/m 32,2 km/h (5 Bft) 100,00 %
07.12.2018 18:08 10,3 C 8,9 C 8,3 C 95 % 995,9 hPa 0,0 l/m 0 min 4 min 0 W/m 19,3 km/h (3 Bft) 98,92 %
07.12.2018 18:10 10,3 C 8,9 C 8,3 C 95 % 996,0 hPa 0,0 l/m 0 min 2 min 0 W/m 32,2 km/h (5 Bft) 100,00 %
07.12.2018 18:12 10,3 C 8,9 C 8,3 C 95 % 996,3 hPa 0,4 l/m 0 min 2 min 0 W/m 22,5 km/h (4 Bft) 100,00 %
07.12.2018 18:14 10,3 C 8,9 C 8,3 C 95 % 996,3 hPa 0,4 l/m 0 min 2 min 0 W/m 16,1 km/h (3 Bft) 100,00 %
07.12.2018 18:16 10,3 C 8,9 C 8,3 C 95 % 996,2 hPa 0,2 l/m 0 min 2 min 0 W/m 32,2 km/h (5 Bft) 100,00 %
07.12.2018 18:18 10,3 C 8,9 C 8,3 C 95 % 996,2 hPa 0,0 l/m 0 min 2 min 0 W/m 22,5 km/h (4 Bft) 100,00 %
07.12.2018 18:20 10,3 C 8,9 C 8,3 C 95 % 996,2 hPa 0,0 l/m 0 min 2 min 0 W/m 29,0 km/h (5 Bft) 100,00 %
07.12.2018 18:22 10,3 C 8,9 C 8,3 C 95 % 996,2 hPa 0,0 l/m 0 min 2 min 0 W/m 22,5 km/h (4 Bft) 100,00 %
07.12.2018 18:24 10,3 C 8,9 C 8,3 C 95 % 996,3 hPa 0,0 l/m 0 min 2 min 0 W/m 19,3 km/h (3 Bft) 100,00 %
07.12.2018 18:26 10,3 C 8,9 C 8,3 C 95 % 996,2 hPa 0,0 l/m 0 min 2 min 0 W/m 19,3 km/h (3 Bft) 97,87 %
07.12.2018 18:28 10,2 C 8,9 C 8,3 C 95 % 996,4 hPa 0,0 l/m 0 min 2 min 0 W/m 19,3 km/h (3 Bft) 100,00 %
07.12.2018 18:30 10,2 C 8,3 C 8,3 C 95 % 996,3 hPa 0,2 l/m 0 min 2 min 0 W/m 25,7 km/h (4 Bft) 97,87 %
07.12.2018 18:32 10,2 C 8,3 C 8,3 C 95 % 996,4 hPa 0,0 l/m 0 min 2 min 0 W/m 19,3 km/h (3 Bft) 97,87 %
07.12.2018 18:34 10,1 C 8,3 C 8,3 C 95 % 996,4 hPa 0,2 l/m 0 min 2 min 0 W/m 22,5 km/h (4 Bft) 100,00 %
07.12.2018 18:36 10,1 C 8,3 C 8,3 C 95 % 996,5 hPa 0,0 l/m 0 min 2 min 0 W/m 16,1 km/h (3 Bft) 100,00 %
07.12.2018 18:38 10,0 C 8,3 C 7,8 C 95 % 996,5 hPa 0,2 l/m 0 min 2 min 0 W/m 22,5 km/h (4 Bft) 95,74 %
07.12.2018 18:40 10,0 C 8,3 C 7,8 C 94 % 996,5 hPa 0,0 l/m 0 min 2 min 0 W/m 19,3 km/h (3 Bft) 97,83 %
07.12.2018 18:42 9,9 C 8,3 C 7,8 C 94 % 996,7 hPa 0,0 l/m 0 min 2 min 0 W/m 22,5 km/h (4 Bft) 97,87 %
07.12.2018 18:44 9,9 C 8,3 C 7,8 C 94 % 996,9 hPa 0,4 l/m 0 min 2 min 0 W/m 22,5 km/h (4 Bft) 100,00 %
07.12.2018 18:46 9,8 C 8,3 C 7,8 C 94 % 997,0 hPa 0,4 l/m 0 min 2 min 0 W/m 25,7 km/h (4 Bft) 100,00 %
07.12.2018 18:48 9,7 C 7,8 C 7,8 C 94 % 997,2 hPa 0,0 l/m 0 min 2 min 0 W/m 25,7 km/h (4 Bft) 100,00 %
07.12.2018 18:50 9,6 C 7,8 C 7,8 C 94 % 997,3 hPa 0,0 l/m 0 min 2 min 0 W/m 22,5 km/h (4 Bft) 97,87 %
07.12.2018 18:52 9,4 C 7,8 C 7,2 C 94 % 997,4 hPa 0,0 l/m 0 min 2 min 0 W/m 38,6 km/h (5 Bft) 95,65 %
07.12.2018 18:54 9,2 C 7,2 C 7,2 C 94 % 997,5 hPa 0,2 l/m 0 min 2 min 0 W/m 45,1 km/h (6 Bft) 97,87 %
07.12.2018 18:56 9,1 C 7,2 C 7,2 C 94 % 997,7 hPa 0,0 l/m 0 min 2 min 0 W/m 22,5 km/h (4 Bft) 97,87 %
07.12.2018 18:58 8,9 C 7,2 C 6,7 C 94 % 997,8 hPa 0,0 l/m 0 min 2 min 0 W/m 35,4 km/h (5 Bft) 97,87 %
07.12.2018 19:00 8,8 C 7,2 C 6,7 C 94 % 997,8 hPa 0,0 l/m 0 min 2 min 0 W/m 22,5 km/h (4 Bft) 93,62 %
07.12.2018 19:02 8,7 C 7,2 C 6,7 C 94 % 997,9 hPa 0,0 l/m 0 min 2 min 0 W/m 32,2 km/h (5 Bft) 100,00 %
07.12.2018 19:04 8,6 C 6,7 C 6,7 C 94 % 998,0 hPa 0,2 l/m 0 min 2 min 0 W/m 29,0 km/h (5 Bft) 97,83 %
07.12.2018 19:06 8,4 C 6,7 C 6,7 C 94 % 998,2 hPa 0,0 l/m 0 min 2 min 0 W/m 29,0 km/h (5 Bft) 97,87 %
07.12.2018 19:08 8,3 C 6,7 C 6,7 C 94 % 998,3 hPa 0,0 l/m 0 min 2 min 0 W/m 29,0 km/h (5 Bft) 97,87 %
07.12.2018 19:10 8,3 C 6,7 C 6,7 C 94 % 998,2 hPa 0,0 l/m 0 min 2 min 0 W/m 32,2 km/h (5 Bft) 97,87 %
07.12.2018 19:12 8,2 C 6,7 C 6,7 C 94 % 998,3 hPa 0,2 l/m 0 min 2 min 0 W/m 29,0 km/h (5 Bft) 95,74 %
07.12.2018 19:14 8,1 C 6,7 C 6,7 C 94 % 998,2 hPa 0,0 l/m 0 min 2 min 0 W/m 25,7 km/h (4 Bft) 93,62 %
07.12.2018 19:16 8,1 C 6,7 C 6,7 C 94 % 998,4 hPa 0,2 l/m 0 min 2 min 0 W/m 22,5 km/h (4 Bft) 93,48 %
07.12.2018 19:18 8,1 C 6,7 C 6,7 C 94 % 998,4 hPa 0,0 l/m 0 min 2 min 0 W/m 22,5 km/h (4 Bft) 95,74 %
07.12.2018 19:20 8,0 C 6,7 C 6,7 C 94 % 998,2 hPa 0,0 l/m 0 min 2 min 0 W/m 38,6 km/h (5 Bft) 95,74 %
07.12.2018 19:22 7,9 C 6,7 C 6,1 C 94 % 998,4 hPa 0,2 l/m 0 min 2 min 0 W/m 25,7 km/h (4 Bft) 93,62 %
07.12.2018 19:24 7,9 C 6,7 C 6,1 C 94 % 998,5 hPa 0,2 l/m 0 min 2 min 0 W/m 22,5 km/h (4 Bft) 93,62 %
07.12.2018 19:26 7,9 C 6,7 C 6,7 C 95 % 998,5 hPa 0,0 l/m 0 min 2 min 0 W/m 19,3 km/h (3 Bft) 95,74 %
07.12.2018 19:28 7,9 C 6,7 C 6,7 C 95 % 998,5 hPa 0,2 l/m 0 min 2 min 0 W/m 16,1 km/h (3 Bft) 95,65 %
07.12.2018 19:30 7,9 C 6,7 C 6,7 C 95 % 998,5 hPa 0,2 l/m 0 min 2 min 0 W/m 16,1 km/h (3 Bft) 97,87 %
07.12.2018 19:32 7,9 C 6,7 C 6,7 C 95 % 998,5 hPa 0,0 l/m 0 min 2 min 0 W/m 16,1 km/h (3 Bft) 93,62 %
07.12.2018 19:34 7,8 C 6,7 C 6,7 C 95 % 998,5 hPa 0,0 l/m 0 min 2 min 0 W/m 29,0 km/h (5 Bft) 95,74 %
07.12.2018 19:36 7,8 C 6,7 C 6,7 C 95 % 998,8 hPa 0,2 l/m 0 min 2 min 0 W/m 19,3 km/h (3 Bft) 93,62 %
07.12.2018 19:38 7,8 C 6,7 C 6,1 C 95 % 998,8 hPa 0,0 l/m 0 min 2 min 0 W/m 16,1 km/h (3 Bft) 97,83 %
07.12.2018 19:40 7,8 C 6,7 C 6,1 C 95 % 998,7 hPa 0,0 l/m 0 min 2 min 0 W/m 25,7 km/h (4 Bft) 95,74 %
07.12.2018 19:42 7,7 C 6,7 C 6,1 C 95 % 998,8 hPa 0,0 l/m 0 min 2 min 0 W/m 12,9 km/h (3 Bft) 100,00 %
07.12.2018 19:44 7,7 C 6,7 C 6,1 C 95 % 998,8 hPa 0,0 l/m 0 min 2 min 0 W/m 9,7 km/h (2 Bft) 97,87 %
07.12.2018 19:46 7,7 C 6,7 C 6,1 C 95 % 998,8 hPa 0,0 l/m 0 min 2 min 0 W/m 16,1 km/h (3 Bft) 97,87 %
07.12.2018 19:48 7,7 C 6,1 C 6,1 C 95 % 999,1 hPa 0,0 l/m 0 min 2 min 0 W/m 19,3 km/h (3 Bft) 95,74 %
07.12.2018 19:50 7,6 C 6,1 C 6,1 C 95 % 999,3 hPa 0,2 l/m 0 min 2 min 0 W/m 25,7 km/h (4 Bft) 95,65 %
07.12.2018 19:52 7,6 C 6,1 C 6,1 C 95 % 999,3 hPa 0,0 l/m 0 min 2 min 0 W/m 19,3 km/h (3 Bft) 97,87 %
07.12.2018 19:54 7,6 C 6,1 C 6,1 C 95 % 999,4 hPa 0,0 l/m 0 min 2 min 0 W/m 19,3 km/h (3 Bft) 97,87 %
07.12.2018 19:56 7,5 C 6,1 C 6,1 C 95 % 999,4 hPa 0,0 l/m 0 min 2 min 0 W/m 19,3 km/h (3 Bft) 97,87 %
07.12.2018 19:58 7,4 C 6,1 C 6,1 C 95 % 999,4 hPa 0,0 l/m 0 min 2 min 0 W/m 16,1 km/h (3 Bft) 95,74 %
07.12.2018 20:00 7,4 C 6,1 C 6,1 C 95 % 999,4 hPa 0,0 l/m 0 min 2 min 0 W/m 9,7 km/h (2 Bft) 97,87 %
07.12.2018 20:02 7,4 C 6,1 C 6,1 C 95 % 999,4 hPa 0,0 l/m 0 min 2 min 0 W/m 9,7 km/h (2 Bft) 100,00 %
07.12.2018 20:04 7,4 C 6,1 C 6,1 C 95 % 999,4 hPa 0,0 l/m 0 min 0 min 0 W/m 19,3 km/h (3 Bft) 97,87 %
07.12.2018 20:06 7,4 C 6,1 C 6,1 C 95 % 999,4 hPa 0,0 l/m 0 min 0 min 0 W/m 19,3 km/h (3 Bft) 100,00 %
07.12.2018 20:08 7,3 C 6,1 C 5,6 C 95 % 999,4 hPa 0,0 l/m 0 min 0 min 0 W/m 9,7 km/h (2 Bft) 95,83 %
07.12.2018 20:10 7,3 C 6,1 C 5,6 C 95 % 999,5 hPa 0,0 l/m 0 min 0 min 0 W/m 12,9 km/h (3 Bft) 97,87 %
07.12.2018 20:12 7,3 C 6,1 C 5,6 C 95 % 999,6 hPa 0,0 l/m 0 min 0 min 0 W/m 19,3 km/h (3 Bft) 95,74 %
07.12.2018 20:14 7,2 C 6,1 C 5,6 C 95 % 999,6 hPa 0,0 l/m 0 min 0 min 0 W/m 19,3 km/h (3 Bft) 95,65 %
07.12.2018 20:16 7,2 C 6,1 C 5,6 C 95 % 999,7 hPa 0,0 l/m 0 min 0 min 0 W/m 16,1 km/h (3 Bft) 95,74 %
07.12.2018 20:18 7,1 C 6,1 C 5,6 C 95 % 999,8 hPa 0,0 l/m 0 min 0 min 0 W/m 16,1 km/h (3 Bft) 95,74 %
07.12.2018 20:20 7,1 C 6,1 C 5,6 C 95 % 999,8 hPa 0,0 l/m 0 min 0 min 0 W/m 16,1 km/h (3 Bft) 97,87 %
07.12.2018 20:22 7,1 C 6,1 C 5,6 C 95 % 999,8 hPa 0,0 l/m 0 min 0 min 0 W/m 12,9 km/h (3 Bft) 97,87 %
07.12.2018 20:24 7,1 C 6,1 C 5,6 C 95 % 999,9 hPa 0,0 l/m 0 min 0 min 0 W/m 22,5 km/h (4 Bft) 95,74 %
07.12.2018 20:26 7,0 C 6,1 C 5,6 C 95 % 1000,0 hPa 0,0 l/m 0 min 0 min 0 W/m 22,5 km/h (4 Bft) 95,65 %
07.12.2018 20:28 7,0 C 6,1 C 5,6 C 95 % 1000,0 hPa 0,0 l/m 0 min 0 min 0 W/m 19,3 km/h (3 Bft) 97,87 %
07.12.2018 20:30 7,0 C 6,1 C 5,6 C 95 % 1000,1 hPa 0,0 l/m 0 min 0 min 0 W/m 12,9 km/h (3 Bft) 97,87 %
07.12.2018 20:32 6,9 C 6,1 C 5,6 C 95 % 1000,1 hPa 0,0 l/m 0 min 0 min 0 W/m 16,1 km/h (3 Bft) 97,87 %
07.12.2018 20:34 6,9 C 6,1 C 5,6 C 95 % 1000,1 hPa 0,0 l/m 0 min 0 min 0 W/m 9,7 km/h (2 Bft) 97,87 %
07.12.2018 20:36 6,9 C 6,1 C 5,6 C 95 % 1000,1 hPa 0,0 l/m 0 min 0 min 0 W/m 19,3 km/h (3 Bft) 97,83 %
07.12.2018 20:38 6,9 C 6,1 C 5,6 C 95 % 1000,1 hPa 0,0 l/m 0 min 0 min 0 W/m 16,1 km/h (3 Bft) 97,87 %
07.12.2018 20:40 6,9 C 6,1 C 5,6 C 95 % 1000,1 hPa 0,0 l/m 0 min 0 min 0 W/m 12,9 km/h (3 Bft) 91,49 %
07.12.2018 20:42 6,9 C 6,1 C 5,6 C 95 % 1000,1 hPa 0,0 l/m 0 min 0 min 0 W/m 9,7 km/h (2 Bft) 95,74 %
07.12.2018 20:44 6,9 C 6,1 C 5,6 C 95 % 1000,1 hPa 0,0 l/m 0 min 0 min 0 W/m 25,7 km/h (4 Bft) 97,87 %
07.12.2018 20:46 6,9 C 6,1 C 5,6 C 95 % 1000,2 hPa 0,0 l/m 0 min 0 min 0 W/m 9,7 km/h (2 Bft) 97,87 %
07.12.2018 20:48 6,9 C 6,1 C 5,6 C 95 % 1000,3 hPa 0,0 l/m 0 min 0 min 0 W/m 16,1 km/h (3 Bft) 97,83 %
07.12.2018 20:50 6,9 C 6,1 C 5,6 C 95 % 1000,5 hPa 0,0 l/m 0 min 0 min 0 W/m 9,7 km/h (2 Bft) 97,87 %
07.12.2018 20:52 6,9 C 6,1 C 5,6 C 95 % 1000,5 hPa 0,0 l/m 0 min 0 min 0 W/m 22,5 km/h (4 Bft) 97,87 %
07.12.2018 20:54 6,9 C 6,1 C 5,6 C 95 % 1000,5 hPa 0,0 l/m 0 min 0 min 0 W/m 9,7 km/h (2 Bft) 97,87 %
07.12.2018 20:56 6,9 C 6,1 C 5,6 C 95 % 1000,6 hPa 0,0 l/m 0 min 0 min 0 W/m 16,1 km/h (3 Bft) 95,74 %
07.12.2018 20:58 6,9 C 6,1 C 5,6 C 95 % 1000,6 hPa 0,0 l/m 0 min 0 min 0 W/m 19,3 km/h (3 Bft) 97,87 %
07.12.2018 21:00 6,9 C 6,1 C 5,6 C 95 % 1000,8 hPa 0,0 l/m 0 min 0 min 0 W/m 9,7 km/h (2 Bft) 97,83 %
07.12.2018 21:02 6,9 C 6,1 C 5,6 C 95 % 1000,8 hPa 0,0 l/m 0 min 0 min 0 W/m 16,1 km/h (3 Bft) 97,87 %
07.12.2018 21:04 6,9 C 6,1 C 5,6 C 95 % 1001,0 hPa 0,0 l/m 0 min 0 min 0 W/m 12,9 km/h (3 Bft) 97,87 %
07.12.2018 21:06 6,9 C 6,1 C 5,6 C 95 % 1001,1 hPa 0,0 l/m 0 min 0 min 0 W/m 22,5 km/h (4 Bft) 95,74 %
07.12.2018 21:08 6,9 C 6,1 C 5,6 C 95 % 1001,2 hPa 0,0 l/m 0 min 0 min 0 W/m 22,5 km/h (4 Bft) 95,74 %
07.12.2018 21:10 6,9 C 6,1 C 5,6 C 95 % 1001,4 hPa 0,0 l/m 0 min 0 min 0 W/m 25,7 km/h (4 Bft) 97,87 %
07.12.2018 21:12 6,9 C 6,1 C 5,6 C 95 % 1001,3 hPa 0,0 l/m 0 min 2 min 0 W/m 19,3 km/h (3 Bft) 97,83 %
07.12.2018 21:14 6,9 C 6,1 C 5,6 C 95 % 1001,4 hPa 0,0 l/m 0 min 2 min 0 W/m 16,1 km/h (3 Bft) 97,87 %
07.12.2018 21:16 6,8 C 5,6 C 5,6 C 94 % 1001,5 hPa 0,0 l/m 0 min 2 min 0 W/m 16,1 km/h (3 Bft) 95,74 %
07.12.2018 21:18 6,8 C 5,6 C 5,0 C 94 % 1001,4 hPa 0,0 l/m 0 min 2 min 0 W/m 19,3 km/h (3 Bft) 97,87 %
07.12.2018 21:20 6,8 C 5,6 C 5,0 C 94 % 1001,3 hPa 0,2 l/m 0 min 2 min 0 W/m 16,1 km/h (3 Bft) 100,00 %
07.12.2018 21:22 6,7 C 5,0 C 5,0 C 94 % 1001,4 hPa 0,0 l/m 0 min 2 min 0 W/m 16,1 km/h (3 Bft) 100,00 %
07.12.2018 21:24 6,7 C 5,0 C 5,0 C 94 % 1001,4 hPa 0,0 l/m 0 min 2 min 0 W/m 25,7 km/h (4 Bft) 97,83 %
07.12.2018 21:26 6,6 C 5,0 C 5,0 C 94 % 1001,5 hPa 0,0 l/m 0 min 2 min 0 W/m 22,5 km/h (4 Bft) 97,87 %
07.12.2018 21:28 6,6 C 5,0 C 5,0 C 94 % 1001,6 hPa 0,0 l/m 0 min 2 min 0 W/m 19,3 km/h (3 Bft) 97,87 %
07.12.2018 21:30 6,6 C 5,0 C 5,0 C 94 % 1001,6 hPa 0,0 l/m 0 min 0 min 0 W/m 16,1 km/h (3 Bft) 93,62 %
07.12.2018 21:32 6,5 C 5,0 C 5,0 C 94 % 1001,8 hPa 0,0 l/m 0 min 2 min 0 W/m 22,5 km/h (4 Bft) 95,74 %
07.12.2018 21:34 6,4 C 5,0 C 5,0 C 94 % 1001,7 hPa 0,0 l/m 0 min 0 min 0 W/m 16,1 km/h (3 Bft) 97,87 %
07.12.2018 21:36 6,4 C 5,0 C 5,0 C 94 % 1001,7 hPa 0,0 l/m 0 min 0 min 0 W/m 9,7 km/h (2 Bft) 97,83 %
07.12.2018 21:38 6,4 C 5,0 C 5,0 C 94 % 1001,7 hPa 0,0 l/m 0 min 0 min 0 W/m 9,7 km/h (2 Bft) 93,75 %
07.12.2018 21:40 6,4 C 5,0 C 5,0 C 94 % 1001,7 hPa 0,0 l/m 0 min 0 min 0 W/m 16,1 km/h (3 Bft) 97,87 %
07.12.2018 21:42 6,4 C 5,0 C 5,0 C 94 % 1001,7 hPa 0,0 l/m 0 min 0 min 0 W/m 9,7 km/h (2 Bft) 91,49 %
07.12.2018 21:44 6,4 C 5,0 C 5,0 C 94 % 1001,8 hPa 0,0 l/m 0 min 0 min 0 W/m 12,9 km/h (3 Bft) 95,74 %
07.12.2018 21:46 6,3 C 5,0 C 4,4 C 94 % 1001,7 hPa 0,0 l/m 0 min 0 min 0 W/m 12,9 km/h (3 Bft) 97,83 %
07.12.2018 21:48 6,3 C 5,0 C 4,4 C 94 % 1001,7 hPa 0,0 l/m 0 min 0 min 0 W/m 12,9 km/h (3 Bft) 97,87 %
07.12.2018 21:50 6,3 C 5,0 C 4,4 C 94 % 1001,8 hPa 0,0 l/m 0 min 0 min 0 W/m 19,3 km/h (3 Bft) 97,87 %
07.12.2018 21:52 6,3 C 5,0 C 4,4 C 94 % 1001,7 hPa 0,0 l/m 0 min 0 min 0 W/m 9,7 km/h (2 Bft) 97,87 %
07.12.2018 21:54 6,3 C 5,0 C 4,4 C 94 % 1001,8 hPa 0,0 l/m 0 min 0 min 0 W/m 12,9 km/h (3 Bft) 97,87 %
07.12.2018 21:56 6,3 C 5,0 C 5,0 C 94 % 1001,9 hPa 0,0 l/m 0 min 0 min 0 W/m 16,1 km/h (3 Bft) 95,74 %
07.12.2018 21:58 6,3 C 5,6 C 5,0 C 94 % 1002,0 hPa 0,0 l/m 0 min 0 min 0 W/m 16,1 km/h (3 Bft) 97,83 %
07.12.2018 22:00 6,3 C 5,6 C 5,0 C 94 % 1002,0 hPa 0,0 l/m 0 min 0 min 0 W/m 12,9 km/h (3 Bft) 97,87 %
07.12.2018 22:02 6,3 C 5,6 C 5,0 C 94 % 1002,1 hPa 0,0 l/m 0 min 0 min 0 W/m 16,1 km/h (3 Bft) 97,87 %
07.12.2018 22:04 6,4 C 5,6 C 5,0 C 94 % 1002,2 hPa 0,0 l/m 0 min 0 min 0 W/m 9,7 km/h (2 Bft) 95,74 %
07.12.2018 22:06 6,4 C 5,6 C 5,0 C 94 % 1002,2 hPa 0,0 l/m 0 min 0 min 0 W/m 19,3 km/h (3 Bft) 97,87 %
07.12.2018 22:08 6,4 C 5,6 C 5,0 C 95 % 1002,1 hPa 0,0 l/m 0 min 0 min 0 W/m 12,9 km/h (3 Bft) 97,87 %
07.12.2018 22:10 6,4 C 5,6 C 5,0 C 95 % 1002,2 hPa 0,0 l/m 0 min 0 min 0 W/m 12,9 km/h (3 Bft) 95,65 %
07.12.2018 22:12 6,4 C 5,6 C 5,0 C 95 % 1002,3 hPa 0,0 l/m 0 min 0 min 0 W/m 9,7 km/h (2 Bft) 97,87 %
07.12.2018 22:14 6,4 C 5,6 C 5,0 C 95 % 1002,3 hPa 0,0 l/m 0 min 0 min 0 W/m 16,1 km/h (3 Bft) 97,87 %
07.12.2018 22:16 6,4 C 5,6 C 5,0 C 95 % 1002,4 hPa 0,0 l/m 0 min 0 min 0 W/m 12,9 km/h (3 Bft) 97,87 %
07.12.2018 22:18 6,5 C 5,6 C 5,0 C 95 % 1002,3 hPa 0,0 l/m 0 min 0 min 0 W/m 12,9 km/h (3 Bft) 97,87 %
07.12.2018 22:20 6,5 C 5,6 C 5,0 C 95 % 1002,4 hPa 0,0 l/m 0 min 0 min 0 W/m 19,3 km/h (3 Bft) 95,74 %
07.12.2018 22:22 6,5 C 5,6 C 5,0 C 95 % 1002,3 hPa 0,0 l/m 0 min 0 min 0 W/m 35,4 km/h (5 Bft) 97,83 %
07.12.2018 22:24 6,6 C 5,6 C 5,0 C 95 % 1002,8 hPa 0,0 l/m 0 min 0 min 0 W/m 19,3 km/h (3 Bft) 95,74 %
07.12.2018 22:26 6,6 C 5,6 C 5,0 C 95 % 1002,5 hPa 0,0 l/m 0 min 0 min 0 W/m 32,2 km/h (5 Bft) 95,74 %
07.12.2018 22:28 6,6 C 5,6 C 5,0 C 94 % 1002,4 hPa 0,0 l/m 0 min 0 min 0 W/m 22,5 km/h (4 Bft) 97,87 %
07.12.2018 22:30 6,6 C 5,6 C 5,0 C 94 % 1002,3 hPa 0,0 l/m 0 min 0 min 0 W/m 19,3 km/h (3 Bft) 97,87 %
07.12.2018 22:32 6,5 C 5,6 C 5,0 C 94 % 1002,3 hPa 0,0 l/m 0 min 0 min 0 W/m 25,7 km/h (4 Bft) 97,87 %
07.12.2018 22:34 6,4 C 5,6 C 5,0 C 94 % 1002,3 hPa 0,0 l/m 0 min 0 min 0 W/m 22,5 km/h (4 Bft) 97,83 %
07.12.2018 22:36 6,4 C 5,6 C 5,0 C 94 % 1002,5 hPa 0,0 l/m 0 min 0 min 0 W/m 25,7 km/h (4 Bft) 97,87 %
07.12.2018 22:38 6,4 C 5,0 C 4,4 C 93 % 1002,6 hPa 0,0 l/m 0 min 0 min 0 W/m 25,7 km/h (4 Bft) 97,87 %
07.12.2018 22:40 6,4 C 5,0 C 4,4 C 93 % 1002,7 hPa 0,0 l/m 0 min 0 min 0 W/m 25,7 km/h (4 Bft) 97,87 %
07.12.2018 22:42 6,4 C 5,0 C 4,4 C 93 % 1002,8 hPa 0,0 l/m 0 min 0 min 0 W/m 32,2 km/h (5 Bft) 93,62 %
07.12.2018 22:44 6,3 C 5,0 C 4,4 C 92 % 1002,7 hPa 0,0 l/m 0 min 0 min 0 W/m 19,3 km/h (3 Bft) 97,87 %
07.12.2018 22:46 6,3 C 5,0 C 4,4 C 92 % 1002,6 hPa 0,0 l/m 0 min 0 min 0 W/m 12,9 km/h (3 Bft) 97,83 %
07.12.2018 22:48 6,3 C 5,0 C 4,4 C 92 % 1002,8 hPa 0,0 l/m 0 min 0 min 0 W/m 19,3 km/h (3 Bft) 97,87 %
07.12.2018 22:50 6,2 C 5,0 C 4,4 C 92 % 1002,8 hPa 0,0 l/m 0 min 0 min 0 W/m 19,3 km/h (3 Bft) 95,74 %
07.12.2018 22:52 6,2 C 5,0 C 4,4 C 91 % 1002,8 hPa 0,0 l/m 0 min 0 min 0 W/m 12,9 km/h (3 Bft) 100,00 %
07.12.2018 22:54 6,2 C 5,0 C 4,4 C 91 % 1002,8 hPa 0,0 l/m 0 min 0 min 0 W/m 12,9 km/h (3 Bft) 100,00 %
07.12.2018 22:56 6,2 C 5,0 C 4,4 C 91 % 1002,9 hPa 0,0 l/m 0 min 0 min 0 W/m 12,9 km/h (3 Bft) 100,00 %
07.12.2018 22:58 6,2 C 5,0 C 4,4 C 91 % 1002,9 hPa 0,0 l/m 0 min 0 min 0 W/m 16,1 km/h (3 Bft) 100,00 %
07.12.2018 23:00 6,2 C 5,0 C 4,4 C 92 % 1002,8 hPa 0,0 l/m 0 min 0 min 0 W/m 22,5 km/h (4 Bft) 97,87 %
07.12.2018 23:02 6,1 C 5,0 C 4,4 C 92 % 1002,8 hPa 0,0 l/m 0 min 0 min 0 W/m 22,5 km/h (4 Bft) 100,00 %
07.12.2018 23:04 6,1 C 5,0 C 4,4 C 92 % 1003,0 hPa 0,0 l/m 0 min 0 min 0 W/m 19,3 km/h (3 Bft) 100,00 %
07.12.2018 23:06 6,1 C 5,0 C 4,4 C 92 % 1003,1 hPa 0,0 l/m 0 min 0 min 0 W/m 41,8 km/h (6 Bft) 100,00 %
07.12.2018 23:08 6,1 C 5,0 C 4,4 C 92 % 1003,2 hPa 0,0 l/m 0 min 0 min 0 W/m 19,3 km/h (3 Bft) 97,83 %
07.12.2018 23:10 6,1 C 5,0 C 4,4 C 92 % 1003,4 hPa 0,0 l/m 0 min 2 min 0 W/m 16,1 km/h (3 Bft) 100,00 %
07.12.2018 23:12 6,1 C 5,0 C 4,4 C 92 % 1003,3 hPa 0,2 l/m 0 min 2 min 0 W/m 22,5 km/h (4 Bft) 97,83 %
07.12.2018 23:14 6,1 C 4,4 C 3,9 C 92 % 1003,4 hPa 0,0 l/m 0 min 2 min 0 W/m 16,1 km/h (3 Bft) 100,00 %
07.12.2018 23:16 6,1 C 4,4 C 4,4 C 92 % 1003,3 hPa 0,0 l/m 0 min 2 min 0 W/m 16,1 km/h (3 Bft) 97,87 %
07.12.2018 23:18 6,1 C 5,0 C 4,4 C 92 % 1003,3 hPa 0,0 l/m 0 min 2 min 0 W/m 25,7 km/h (4 Bft) 100,00 %
07.12.2018 23:20 6,1 C 5,0 C 4,4 C 92 % 1003,4 hPa 0,0 l/m 0 min 0 min 0 W/m 25,7 km/h (4 Bft) 100,00 %
07.12.2018 23:22 6,1 C 5,0 C 4,4 C 92 % 1003,4 hPa 0,0 l/m 0 min 2 min 0 W/m 22,5 km/h (4 Bft) 100,00 %
07.12.2018 23:24 6,1 C 5,0 C 4,4 C 92 % 1003,4 hPa 0,0 l/m 0 min 2 min 0 W/m 22,5 km/h (4 Bft) 100,00 %
07.12.2018 23:26 6,1 C 5,0 C 4,4 C 92 % 1003,4 hPa 0,0 l/m 0 min 0 min 0 W/m 19,3 km/h (3 Bft) 100,00 %
07.12.2018 23:28 6,2 C 5,0 C 4,4 C 92 % 1003,5 hPa 0,0 l/m 0 min 0 min 0 W/m 9,7 km/h (2 Bft) 100,00 %
07.12.2018 23:30 6,2 C 5,0 C 4,4 C 92 % 1003,6 hPa 0,0 l/m 0 min 0 min 0 W/m 19,3 km/h (3 Bft) 100,00 %
07.12.2018 23:32 6,2 C 5,0 C 4,4 C 92 % 1003,6 hPa 0,0 l/m 0 min 0 min 0 W/m 12,9 km/h (3 Bft) 100,00 %
07.12.2018 23:34 6,2 C 5,0 C 4,4 C 92 % 1003,5 hPa 0,0 l/m 0 min 0 min 0 W/m 16,1 km/h (3 Bft) 95,74 %
07.12.2018 23:36 6,1 C 5,0 C 4,4 C 92 % 1003,5 hPa 0,2 l/m 0 min 0 min 0 W/m 25,7 km/h (4 Bft) 98,28 %
07.12.2018 23:38 6,1 C 5,0 C 4,4 C 92 % 1003,6 hPa 0,0 l/m 0 min 0 min 0 W/m 16,1 km/h (3 Bft) 100,00 %
07.12.2018 23:40 6,1 C 5,0 C 4,4 C 92 % 1003,7 hPa 0,0 l/m 0 min 0 min 0 W/m 19,3 km/h (3 Bft) 100,00 %
07.12.2018 23:42 6,1 C 5,0 C 4,4 C 92 % 1003,6 hPa 0,0 l/m 0 min 0 min 0 W/m 16,1 km/h (3 Bft) 100,00 %
07.12.2018 23:44 6,1 C 5,0 C 4,4 C 92 % 1003,5 hPa 0,0 l/m 0 min 0 min 0 W/m 19,3 km/h (3 Bft) 97,87 %
07.12.2018 23:46 6,1 C 5,0 C 4,4 C 92 % 1003,5 hPa 0,0 l/m 0 min 0 min 0 W/m 16,1 km/h (3 Bft) 97,83 %
07.12.2018 23:48 6,1 C 5,0 C 4,4 C 93 % 1003,5 hPa 0,0 l/m 0 min 0 min 0 W/m 6,4 km/h (2 Bft) 97,87 %
07.12.2018 23:50 6,1 C 5,0 C 4,4 C 93 % 1003,6 hPa 0,0 l/m 0 min 0 min 0 W/m 16,1 km/h (3 Bft) 97,87 %
07.12.2018 23:52 6,1 C 5,0 C 4,4 C 93 % 1003,6 hPa 0,0 l/m 0 min 0 min 0 W/m 16,1 km/h (3 Bft) 97,87 %
07.12.2018 23:54 6,0 C 5,0 C 4,4 C 93 % 1003,5 hPa 0,0 l/m 0 min 0 min 0 W/m 12,9 km/h (3 Bft) 97,87 %
07.12.2018 23:56 6,0 C 5,0 C 4,4 C 93 % 1003,6 hPa 0,0 l/m 0 min 0 min 0 W/m 9,7 km/h (2 Bft) 97,87 %
07.12.2018 23:58 6,0 C 5,0 C 4,4 C 93 % 1003,6 hPa 0,0 l/m 0 min 0 min 0 W/m 19,3 km/h (3 Bft) 95,65 %
_ Min-Zeit 23:54 23:14 23:14 15:00 17:54 - - - - 23:48 06:58
Minimum _ 6,0 C 4,4 C 3,9 C 81 % 995,7 hPa - - - - 6,4 km/h (2 Bft) 85,11 %
_ Max-Zeit 13:32 13:32 13:20 08:32 00:02 18:12 13:18 05:19 13:26 13:32 00:02
Maximum _ 13,2 C 16,1 C 12,2 C 97 % 1013,3 hPa 0,4 l/m 2 min 5 min 310 W/m 57,9 km/h
S-SO (7 Bft)
100,00 %
Durchschnitt _ 10,5 C 9,5 C 9,0 C 93 % 1004,6 hPa #9,0 l/m #18 min. #9:00 h 44 W/m 25,1 km/h (4 Bft) 97,52 %
© 2018 W. Hausmann